WD9GET Weather Reports


Display with metric or nautical units.
time (UTC)temp
F
wind
direction
speed
MPH
gust
MPH
rain 1hr
in
rain 24hr
in
rain mn
in
humidity
%
barometer
mb
20260508062056 73 4 2.0 4.0 0.00 0.00 0.00 89 1011.7
20260508061956 73 37 2.0 4.0 0.00 0.00 0.00 89 1011.8
20260508061856 73 29 2.0 4.0 0.00 0.00 0.00 89 1011.9
20260508061756 73 20 1.0 4.0 0.00 0.00 0.00 89 1011.9
20260508061656 73 38 1.0 3.0 0.00 0.00 0.00 89 1012.0
20260508061616 73 16 1.0 3.0 0.00 0.00 0.00 89 1012.1
20260508061553 73 28 1.0 3.0 0.00 0.00 0.00 89 1012.1
20260508061453 73 32 1.0 2.0 0.00 0.00 0.00 89 1012.2
20260508061353 73 4 1.0 2.0 0.00 0.00 0.00 88 1012.4
20260508061252 73 0 1.0 2.0 0.00 0.00 0.00 88 1012.4
20260508061152 73 47 1.0 2.0 0.00 0.00 0.00 88 1012.5
20260508061116 73 73 1.0 2.0 0.00 0.00 0.00 88 1012.5
20260508061051 73 79 0.0 2.0 0.00 0.00 0.00 88 1012.5
20260508060951 73 0 0.0 2.0 0.00 0.00 0.00 88 1012.5
20260508060849 73 58 1.0 2.0 0.00 0.00 0.00 88 1012.6
20260508060835 73 22 1.0 2.0 0.00 0.00 0.00 88 1012.7
20260508060747 73 67 1.0 2.0 0.00 0.00 0.00 88 1012.6
20260508060721 73 24 1.0 2.0 0.00 0.00 0.00 88 1012.7
20260508060544 73 282 1.0 2.0 0.00 0.00 0.00 88 1012.7
20260508060435 73 324 1.0 2.0 0.00 0.00 0.00 88 1012.7
20260508060334 73 346 1.0 2.0 0.00 0.00 0.00 88 1012.7
20260508060232 73 326 1.0 2.0 0.00 0.00 0.00 88 1012.7
20260508060132 73 69 1.0 2.0 0.00 0.00 0.00 88 1012.7
20260508060116 73 90 1.0 2.0 0.00 0.00 0.00 88 1012.7
20260508060032 73 92 1.0 2.0 0.00 0.00 0.00 88 1012.7
20260508055929 73 159 1.0 2.0 0.00 0.00 0.00 88 1012.8
20260508055829 73 126 0.0 2.0 0.00 0.00 0.00 88 1012.7
20260508055729 73 212 0.0 2.0 0.00 0.00 0.00 88 1012.7
20260508055629 73 167 1.0 3.0 0.00 0.00 0.00 88 1012.7
20260508055604 73 0 1.0 3.0 0.00 0.00 0.00 88 1012.7
20260508055530 73 248 1.0 3.0 0.00 0.00 0.00 88 1012.6
20260508055427 73 2 1.0 3.0 0.00 0.00 0.00 88 1012.6
20260508055327 73 295 1.0 3.0 0.00 0.00 0.00 88 1012.6
20260508055227 73 3 1.0 3.0 0.00 0.00 0.00 87 1012.6
20260508055117 73 254 1.0 3.0 0.00 0.00 0.00 87 1012.6
20260508055101 73 282 1.0 3.0 0.00 0.00 0.00 87 1012.6
20260508055017 73 331 1.0 3.0 0.00 0.00 0.00 87 1012.6
20260508054917 73 0 1.0 3.0 0.00 0.00 0.00 87 1012.6
20260508054817 73 5 0.0 3.0 0.00 0.00 0.00 87 1012.6
20260508054717 73 277 0.0 3.0 0.00 0.00 0.00 87 1012.6
20260508054612 73 110 0.0 2.0 0.00 0.00 0.00 87 1012.6
20260508054558 73 120 0.0 2.0 0.00 0.00 0.00 87 1012.6
20260508054511 73 92 0.0 2.0 0.00 0.00 0.00 87 1012.6
20260508054411 73 0 0.0 2.0 0.00 0.00 0.00 87 1012.6
20260508054312 73 83 0.0 2.0 0.00 0.00 0.00 87 1012.7
20260508054211 73 0 0.0 2.0 0.00 0.00 0.00 87 1012.7
20260508054111 73 168 0.0 2.0 0.00 0.00 0.00 87 1012.7
20260508054052 73 285 0.0 2.0 0.00 0.00 0.00 87 1012.7
20260508054012 73 251 0.0 2.0 0.00 0.00 0.00 87 1012.7
20260508053911 73 0 1.0 2.0 0.00 0.00 0.00 87 1012.5
20260508053811 73 128 1.0 2.0 0.00 0.00 0.00 87 1012.5
20260508053711 73 140 1.0 2.0 0.00 0.00 0.00 87 1012.5
20260508053609 73 284 1.0 2.0 0.00 0.00 0.00 87 1012.4
20260508053551 73 224 1.0 2.0 0.00 0.00 0.00 87 1012.2
20260508053505 73 0 1.0 2.0 0.00 0.00 0.00 87 1012.2
20260508053359 73 66 1.0 2.0 0.00 0.00 0.00 87 1012.2
20260508053259 73 0 1.0 2.0 0.00 0.00 0.00 87 1012.2
20260508053156 73 86 1.0 2.0 0.00 0.00 0.00 87 1012.1
20260508053057 73 116 0.0 2.0 0.00 0.00 0.00 87 1012.1
20260508053049 73 97 0.0 2.0 0.00 0.00 0.00 87 1012.1
20260508052957 73 72 0.0 2.0 0.00 0.00 0.00 87 1012.1
20260508052856 73 0 0.0 2.0 0.00 0.00 0.00 87 1012.1
20260508052757 73 70 0.0 2.0 0.00 0.00 0.00 86 1012.1
20260508052654 73 99 0.0 2.0 0.00 0.00 0.00 86 1012.1
20260508052555 73 37 0.0 3.0 0.00 0.00 0.00 86 1012.1
20260508052549 73 0 0.0 3.0 0.00 0.00 0.00 86 1012.0
20260508052453 73 79 0.0 3.0 0.00 0.00 0.00 86 1012.0
20260508052353 73 0 1.0 3.0 0.00 0.00 0.00 86 1012.0
20260508052253 73 182 1.0 4.0 0.00 0.00 0.00 86 1012.0
20260508052153 73 357 1.0 4.0 0.00 0.00 0.00 86 1011.9
20260508052053 73 15 1.0 4.0 0.00 0.00 0.00 86 1011.9
20260508052046 73 43 1.0 4.0 0.00 0.00 0.00 86 1011.9
20260508051952 73 22 1.0 4.0 0.00 0.00 0.00 86 1011.9
20260508051852 73 44 1.0 4.0 0.00 0.00 0.00 86 1011.9
20260508051752 73 57 1.0 4.0 0.00 0.00 0.00 86 1011.9
20260508051652 73 334 1.0 4.0 0.00 0.00 0.00 86 1011.9
20260508051552 73 68 1.0 4.0 0.00 0.00 0.00 86 1011.9
20260508051546 73 62 1.0 4.0 0.00 0.00 0.00 86 1011.9
20260508051451 73 59 1.0 4.0 0.00 0.00 0.00 86 1011.9
20260508051351 73 45 1.0 4.0 0.00 0.00 0.00 86 1011.9
20260508051251 73 106 1.0 4.0 0.00 0.00 0.00 86 1011.9
20260508051151 73 46 1.0 4.0 0.00 0.00 0.00 86 1011.9
20260508051043 73 35 1.0 4.0 0.00 0.00 0.00 86 1011.9
20260508050947 73 102 1.0 4.0 0.00 0.00 0.00 86 1011.9
20260508050848 73 44 1.0 4.0 0.00 0.00 0.00 86 1011.9
20260508050744 73 58 1.0 4.0 0.00 0.00 0.00 86 1011.9
20260508050644 73 35 2.0 4.0 0.00 0.00 0.00 86 1011.9
20260508050547 73 91 2.0 4.0 0.00 0.00 0.00 86 1011.9
20260508050541 73 99 2.0 4.0 0.00 0.00 0.00 86 1011.9
20260508050445 73 47 2.0 4.0 0.00 0.00 0.00 86 1011.9
20260508050344 73 343 2.0 4.0 0.00 0.00 0.00 86 1012.0
20260508050244 73 2 2.0 4.0 0.00 0.00 0.00 86 1012.0
20260508050145 73 39 2.0 4.0 0.00 0.00 0.00 86 1012.0
20260508050042 73 67 2.0 5.0 0.00 0.00 0.00 86 1012.0
20260508045942 73 80 2.0 5.0 0.00 0.00 0.00 86 1012.0
20260508045842 73 87 2.0 5.0 0.00 0.00 0.00 86 1012.0
20260508045742 73 125 2.0 5.0 0.00 0.00 0.00 86 1012.0
20260508045642 73 110 2.0 5.0 0.00 0.00 0.00 86 1012.0
20260508045542 73 0 2.0 5.0 0.00 0.00 0.00 86 1012.0
20260508045439 73 104 2.0 5.0 0.00 0.00 0.00 85 1012.2
20260508045339 73 61 2.0 6.0 0.00 0.00 0.00 85 1012.2
20260508045306 73 99 2.0 6.0 0.00 0.00 0.00 85 1012.3
20260508045233 73 77 2.0 6.0 0.00 0.00 0.00 85 1012.2
20260508045148 73 130 2.0 6.0 0.00 0.00 0.00 85 1012.3
20260508045038 73 108 2.0 6.0 0.00 0.00 0.00 85 1012.3
20260508044933 73 164 2.0 6.0 0.00 0.00 0.00 85 1012.2
20260508044833 73 66 2.0 6.0 0.00 0.00 0.00 85 1012.2
20260508044733 73 83 2.0 7.0 0.00 0.00 0.00 85 1012.1
20260508044633 73 308 3.0 7.0 0.00 0.00 0.00 85 1012.0
20260508044537 73 100 3.0 7.0 0.00 0.00 0.00 85 1011.8
20260508044533 73 99 3.0 7.0 0.00 0.00 0.00 85 1011.8
20260508044430 73 84 3.0 7.0 0.00 0.00 0.00 85 1011.8
20260508044327 73 125 2.0 7.0 0.00 0.00 0.00 85 1011.8
20260508044224 73 69 2.0 7.0 0.00 0.00 0.00 85 1011.8
20260508044122 73 113 2.0 7.0 0.00 0.00 0.00 85 1011.8
20260508044035 73 101 2.0 7.0 0.00 0.00 0.00 85 1011.9
20260508044021 73 81 2.0 7.0 0.00 0.00 0.00 85 1011.9
20260508043921 73 70 2.0 7.0 0.00 0.00 0.00 85 1012.0
20260508043821 73 80 2.0 7.0 0.00 0.00 0.00 85 1012.0
20260508043721 73 78 2.0 7.0 0.00 0.00 0.00 85 1012.0
20260508043618 73 85 2.0 7.0 0.00 0.00 0.00 84 1012.1
20260508043535 73 56 2.0 7.0 0.00 0.00 0.00 84 1012.1
20260508043515 73 78 2.0 7.0 0.00 0.00 0.00 84 1012.1
20260508043415 74 108 2.0 7.0 0.00 0.00 0.00 84 1012.2
20260508043315 74 118 2.0 7.0 0.00 0.00 0.00 84 1012.2
20260508043248 74 89 2.0 7.0 0.00 0.00 0.00 84 1012.3
20260508043212 74 109 2.0 7.0 0.00 0.00 0.00 84 1012.3
20260508043131 74 0 2.0 7.0 0.00 0.00 0.00 84 1012.3
20260508043000 74 77 2.0 7.0 0.00 0.00 0.00 84 1012.3
20260508042900 74 68 2.0 6.0 0.00 0.00 0.00 84 1012.3
20260508042800 74 131 2.0 5.0 0.00 0.00 0.00 84 1012.4
20260508042700 74 83 2.0 5.0 0.00 0.00 0.00 84 1012.4
20260508042600 74 100 2.0 5.0 0.00 0.00 0.00 84 1012.4
20260508042526 74 53 2.0 5.0 0.00 0.00 0.00 83 1012.4
20260508042500 74 59 2.0 5.0 0.00 0.00 0.00 83 1012.4
20260508042400 74 96 2.0 5.0 0.00 0.00 0.00 83 1012.4
20260508042301 74 77 2.0 5.0 0.00 0.00 0.00 84 1012.4
20260508042201 74 97 2.0 5.0 0.00 0.00 0.00 84 1012.4
20260508042102 74 46 1.0 4.0 0.00 0.00 0.00 84 1012.4
20260508042026 74 139 1.0 4.0 0.00 0.00 0.00 84 1012.4
20260508042000 74 89 1.0 4.0 0.00 0.00 0.00 84 1012.4
20260508041901 74 98 1.0 4.0 0.00 0.00 0.00 83 1012.5
20260508041800 74 68 1.0 4.0 0.00 0.00 0.00 83 1012.5
20260508041701 74 54 1.0 4.0 0.00 0.00 0.00 83 1012.5
20260508041601 74 73 1.0 2.0 0.00 0.00 0.00 83 1012.8
20260508041526 74 97 1.0 2.0 0.00 0.00 0.00 83 1012.8
20260508041501 74 34 1.0 2.0 0.00 0.00 0.00 83 1012.8
20260508041401 74 25 1.0 3.0 0.00 0.00 0.00 83 1012.8
20260508041301 74 0 1.0 3.0 0.00 0.00 0.00 83 1012.8
20260508041250 74 60 1.0 3.0 0.00 0.00 0.00 83 1012.9
20260508041201 74 0 1.0 3.0 0.00 0.00 0.00 83 1012.8
20260508041129 74 40 1.0 3.0 0.00 0.00 0.00 83 1012.9
20260508040953 74 56 1.0 3.0 0.00 0.00 0.00 83 1012.9
20260508040843 74 85 2.0 4.0 0.00 0.00 0.00 83 1013.0
20260508040743 74 10 2.0 4.0 0.00 0.00 0.00 83 1013.0
20260508040637 74 18 2.0 4.0 0.00 0.00 0.00 83 1013.0
20260508040537 74 38 2.0 4.0 0.00 0.00 0.00 83 1013.0
20260508040459 74 53 2.0 4.0 0.00 0.00 0.00 83 1013.0
20260508040437 74 40 2.0 4.0 0.00 0.00 0.00 83 1012.9
20260508040337 74 52 2.0 4.0 0.00 0.00 0.00 83 1012.9
20260508040237 74 41 2.0 4.0 0.00 0.00 0.00 83 1013.0
20260508040222 74 51 1.0 4.0 0.00 0.00 0.00 83 1013.1
20260508040134 74 29 2.0 4.0 0.00 0.00 0.00 83 1013.0
20260508040105 74 43 1.0 4.0 0.00 0.00 0.00 83 1013.1
20260508035934 74 58 1.0 4.0 0.00 0.00 0.00 83 1013.3
20260508035831 74 56 1.0 4.0 0.00 0.00 0.00 83 1013.6
20260508035731 74 115 1.0 4.0 0.00 0.00 0.00 83 1013.6
20260508035631 74 112 1.0 2.0 0.00 0.00 0.00 83 1013.6
20260508035528 74 107 0.0 2.0 0.00 0.00 0.00 83 1013.6
20260508035501 74 111 0.0 2.0 0.00 0.00 0.00 83 1013.6
20260508035427 74 0 0.0 2.0 0.00 0.00 0.00 83 1013.6
20260508035324 74 116 0.0 2.0 0.00 0.00 0.00 83 1013.6
20260508035224 74 97 0.0 2.0 0.00 0.00 0.00 83 1013.6
20260508035125 74 0 0.0 3.0 0.00 0.00 0.00 83 1013.6
20260508035025 74 79 0.0 3.0 0.00 0.00 0.00 83 1013.6
20260508035000 74 0 0.0 3.0 0.00 0.00 0.00 83 1013.6
20260508034925 74 0 0.0 3.0 0.00 0.00 0.00 82 1013.6
20260508034823 74 0 1.0 4.0 0.00 0.00 0.00 82 1013.7
20260508034722 74 289 1.0 4.0 0.00 0.00 0.00 82 1013.7
20260508034622 74 0 1.0 4.0 0.00 0.00 0.00 82 1013.6
20260508034522 74 263 1.0 4.0 0.00 0.00 0.00 82 1013.6
20260508034453 74 0 1.0 4.0 0.00 0.00 0.00 82 1013.6
20260508034419 74 59 1.0 4.0 0.00 0.00 0.00 82 1013.5
20260508034319 74 64 1.0 4.0 0.00 0.00 0.00 82 1013.5
20260508034222 74 73 1.0 4.0 0.00 0.00 0.00 82 1013.5
20260508034117 74 51 1.0 4.0 0.00 0.00 0.00 82 1013.5
20260508034017 74 18 1.0 4.0 0.00 0.00 0.00 82 1013.6
20260508033954 74 89 1.0 4.0 0.00 0.00 0.00 82 1013.6
20260508033916 74 238 1.0 4.0 0.00 0.00 0.00 82 1013.6
20260508033817 74 21 0.0 2.0 0.00 0.00 0.00 82 1013.6
20260508033717 74 43 0.0 2.0 0.00 0.00 0.00 82 1013.6
20260508033614 74 0 0.0 2.0 0.00 0.00 0.00 83 1013.6
20260508033513 74 13 0.0 2.0 0.00 0.00 0.00 82 1013.6
20260508033454 74 39 1.0 2.0 0.00 0.00 0.00 82 1013.6
20260508033413 74 0 0.0 2.0 0.00 0.00 0.00 82 1013.6
20260508033313 74 0 1.0 2.0 0.00 0.00 0.00 82 1013.6
20260508033217 74 309 1.0 2.0 0.00 0.00 0.00 82 1013.6
20260508033213 74 94 1.0 2.0 0.00 0.00 0.00 82 1013.6
20260508033110 74 300 1.0 2.0 0.00 0.00 0.00 82 1013.6
20260508033100 74 0 1.0 2.0 0.00 0.00 0.00 82 1013.6
20260508032907 74 300 1.0 2.0 0.00 0.00 0.00 82 1013.6
20260508032807 74 333 1.0 2.0 0.00 0.00 0.00 82 1013.5
20260508032707 74 268 0.0 2.0 0.00 0.00 0.00 82 1013.5
20260508032603 74 269 0.0 2.0 0.00 0.00 0.00 82 1013.4
20260508032503 74 0 0.0 2.0 0.00 0.00 0.00 82 1013.4
20260508032454 74 294 0.0 2.0 0.00 0.00 0.00 82 1013.4
20260508032403 74 5 1.0 2.0 0.00 0.00 0.00 82 1013.3
20260508032300 74 266 0.0 2.0 0.00 0.00 0.00 82 1013.3
20260508032200 74 0 0.0 2.0 0.00 0.00 0.00 82 1013.3
20260508032100 74 66 0.0 2.0 0.00 0.00 0.00 82 1013.3
20260508032000 74 45 0.0 2.0 0.00 0.00 0.00 82 1013.1
20260508031956 74 41 0.0 2.0 0.00 0.00 0.00 82 1013.1
20260508031857 74 14 0.0 2.0 0.00 0.00 0.00 82 1013.1
20260508031754 74 98 0.0 2.0 0.00 0.00 0.00 82 1013.1
20260508031654 74 156 1.0 4.0 0.00 0.00 0.00 82 1013.1
20260508031552 74 83 1.0 4.0 0.00 0.00 0.00 82 1013.1
20260508031452 74 45 1.0 4.0 0.00 0.00 0.00 81 1013.1
20260508031349 74 30 1.0 4.0 0.00 0.00 0.00 81 1013.0
20260508031250 74 0 1.0 5.0 0.00 0.00 0.00 81 1013.0
20260508031220 74 0 1.0 5.0 0.00 0.00 0.00 81 1013.0
20260508031149 74 0 1.0 5.0 0.00 0.00 0.00 81 1013.0
20260508031059 74 352 1.0 5.0 0.00 0.00 0.00 81 1013.0
20260508030944 74 354 1.0 5.0 0.00 0.00 0.00 81 1013.0
20260508030838 74 93 1.0 5.0 0.00 0.00 0.00 81 1012.9
20260508030738 74 28 1.0 5.0 0.00 0.00 0.00 81 1012.9
20260508030637 74 14 1.0 5.0 0.00 0.00 0.00 81 1012.9
20260508030535 74 40 1.0 5.0 0.00 0.00 0.00 81 1012.8
20260508030454 74 41 1.0 5.0 0.00 0.00 0.00 81 1012.8
20260508030429 74 51 1.0 5.0 0.00 0.00 0.00 81 1012.8
20260508030326 74 335 1.0 4.0 0.00 0.00 0.00 81 1012.8
20260508030226 74 30 1.0 4.0 0.00 0.00 0.00 81 1012.8
20260508030124 74 48 1.0 4.0 0.00 0.00 0.00 81 1012.8
20260508030023 74 290 1.0 4.0 0.00 0.00 0.00 81 1012.8
20260508025954 74 69 1.0 4.0 0.00 0.00 0.00 81 1012.8
20260508025923 74 43 1.0 4.0 0.00 0.00 0.00 81 1012.8
20260508025823 74 3 1.0 4.0 0.00 0.00 0.00 81 1012.8
20260508025723 74 0 1.0 4.0 0.00 0.00 0.00 81 1012.8
20260508025624 74 56 1.0 4.0 0.00 0.00 0.00 81 1012.8
20260508025514 74 102 1.0 3.0 0.00 0.00 0.00 81 1012.9
20260508025452 74 91 1.0 3.0 0.00 0.00 0.00 81 1012.9
20260508025414 74 39 1.0 3.0 0.00 0.00 0.00 81 1012.9
20260508025314 74 45 1.0 3.0 0.00 0.00 0.00 81 1012.9
20260508025214 74 50 2.0 5.0 0.00 0.00 0.00 81 1012.9
20260508025114 74 47 2.0 5.0 0.00 0.00 0.00 81 1012.9
20260508025014 74 49 2.0 5.0 0.00 0.00 0.00 81 1012.9
20260508024952 75 40 2.0 5.0 0.00 0.00 0.00 81 1012.9
20260508024914 75 52 2.0 5.0 0.00 0.00 0.00 81 1012.9
20260508024814 75 26 2.0 5.0 0.00 0.00 0.00 81 1012.9
20260508024714 75 38 2.0 5.0 0.00 0.00 0.00 81 1012.9
20260508024614 75 45 2.0 5.0 0.00 0.00 0.00 81 1012.8
20260508024512 75 43 2.0 5.0 0.00 0.00 0.00 81 1012.8
20260508024452 75 66 2.0 5.0 0.00 0.00 0.00 81 1012.8
20260508024412 75 42 2.0 5.0 0.00 0.00 0.00 81 1012.8
20260508024306 75 49 2.0 5.0 0.00 0.00 0.00 81 1012.8
20260508024156 75 50 2.0 5.0 0.00 0.00 0.00 81 1012.8
20260508024056 75 354 2.0 5.0 0.00 0.00 0.00 81 1012.9
20260508023952 74 327 2.0 5.0 0.00 0.00 0.00 81 1013.0
20260508023854 74 35 2.0 5.0 0.00 0.00 0.00 81 1013.0
20260508023754 74 43 2.0 5.0 0.00 0.00 0.00 81 1013.1
20260508023653 74 49 2.0 5.0 0.00 0.00 0.00 81 1013.1
20260508023553 74 0 1.0 5.0 0.00 0.00 0.00 81 1013.1
20260508023453 74 17 1.0 5.0 0.00 0.00 0.00 82 1013.0
20260508023353 74 107 1.0 5.0 0.00 0.00 0.00 82 1013.0
20260508023253 74 45 1.0 5.0 0.00 0.00 0.00 82 1012.9
20260508023218 75 27 1.0 2.0 0.00 0.00 0.00 82 1012.9
20260508023151 75 63 1.0 3.0 0.00 0.00 0.00 82 1012.9
20260508023101 75 358 1.0 3.0 0.00 0.00 0.00 82 1012.9
20260508023055 75 27 1.0 2.0 0.00 0.00 0.00 82 1012.9
20260508022855 75 39 1.0 2.0 0.00 0.00 0.00 82 1012.9
20260508022739 75 57 1.0 2.0 0.00 0.00 0.00 82 1012.9
20260508022633 75 136 1.0 2.0 0.00 0.00 0.00 82 1012.9
20260508022533 75 62 1.0 2.0 0.00 0.00 0.00 82 1012.9
20260508022446 75 7 1.0 2.0 0.00 0.00 0.00 82 1012.9
20260508022426 75 0 1.0 2.0 0.00 0.00 0.00 82 1012.9
20260508022327 75 57 1.0 2.0 0.00 0.00 0.00 82 1012.9
20260508022227 75 71 1.0 2.0 0.00 0.00 0.00 81 1012.9
20260508022123 75 63 1.0 2.0 0.00 0.00 0.00 81 1012.9
20260508022024 75 52 1.0 2.0 0.00 0.00 0.00 81 1013.0
20260508021946 75 29 1.0 2.0 0.00 0.00 0.00 81 1013.0
20260508021924 75 11 1.0 2.0 0.00 0.00 0.00 81 1013.0
20260508021820 75 21 1.0 2.0 0.00 0.00 0.00 81 1013.0
20260508021721 75 351 1.0 4.0 0.00 0.00 0.00 81 1013.0
20260508021621 75 36 1.0 4.0 0.00 0.00 0.00 81 1013.0
20260508021520 75 37 1.0 4.0 0.00 0.00 0.00 81 1013.0
20260508021440 75 18 1.0 4.0 0.00 0.00 0.00 81 1013.0
20260508021419 75 332 1.0 4.0 0.00 0.00 0.00 81 1013.0
20260508021317 75 0 1.0 4.0 0.00 0.00 0.00 81 1013.0
20260508021212 75 340 1.0 4.0 0.00 0.00 0.00 81 1013.1
20260508021100 75 37 1.0 4.0 0.00 0.00 0.00 81 1013.1
20260508021000 75 12 1.0 4.0 0.00 0.00 0.00 81 1013.1
20260508020937 75 22 1.0 4.0 0.00 0.00 0.00 81 1013.1
20260508020900 75 340 1.0 4.0 0.00 0.00 0.00 81 1013.1
20260508020757 75 46 1.0 4.0 0.00 0.00 0.00 81 1013.1
20260508020657 75 25 1.0 4.0 0.00 0.00 0.00 81 1013.2
20260508020557 75 9 1.0 4.0 0.00 0.00 0.00 81 1013.1
20260508020457 75 49 1.0 3.0 0.00 0.00 0.00 81 1013.1
20260508020438 75 321 1.0 3.0 0.00 0.00 0.00 81 1013.1
20260508020357 75 63 1.0 3.0 0.00 0.00 0.00 81 1013.1
20260508020257 75 142 1.0 4.0 0.00 0.00 0.00 81 1013.0
20260508020157 75 12 2.0 4.0 0.00 0.00 0.00 81 1013.0
20260508020057 75 258 2.0 4.0 0.00 0.00 0.00 81 1013.0
20260508015955 75 355 2.0 4.0 0.00 0.00 0.00 81 1012.9
20260508015932 75 22 2.0 4.0 0.00 0.00 0.00 81 1012.9
20260508015856 75 298 2.0 4.0 0.00 0.00 0.00 81 1012.9
20260508015756 75 59 2.0 4.0 0.00 0.00 0.00 81 1012.9
20260508015654 75 290 2.0 4.0 0.00 0.00 0.00 81 1012.9
20260508015554 75 49 2.0 4.0 0.00 0.00 0.00 81 1012.8
20260508015447 75 9 1.0 4.0 0.00 0.00 0.00 81 1012.8
20260508015432 75 45 1.0 4.0 0.00 0.00 0.00 81 1012.8
20260508015349 75 43 1.0 4.0 0.00 0.00 0.00 81 1012.8
20260508015248 75 36 1.0 4.0 0.00 0.00 0.00 81 1012.8
20260508015156 75 344 1.0 4.0 0.00 0.00 0.00 81 1012.8
20260508015149 75 323 1.0 4.0 0.00 0.00 0.00 81 1012.8
20260508015048 75 7 1.0 4.0 0.00 0.00 0.00 81 1012.8
20260508015037 75 295 1.0 4.0 0.00 0.00 0.00 81 1012.8
20260508014845 75 359 1.0 4.0 0.00 0.00 0.00 81 1012.8
20260508014745 75 69 0.0 3.0 0.00 0.00 0.00 81 1012.8
20260508014639 75 0 0.0 3.0 0.00 0.00 0.00 81 1012.9
20260508014536 75 60 1.0 3.0 0.00 0.00 0.00 81 1012.9
20260508014433 75 41 1.0 3.0 0.00 0.00 0.00 80 1013.0
20260508014324 75 311 1.0 3.0 0.00 0.00 0.00 80 1013.0
20260508014224 75 318 1.0 3.0 0.00 0.00 0.00 80 1013.0
20260508014124 75 0 1.0 3.0 0.00 0.00 0.00 80 1013.0
20260508014024 75 267 1.0 4.0 0.00 0.00 0.00 80 1013.0
20260508013924 75 0 1.0 4.0 0.00 0.00 0.00 80 1012.9
20260508013820 75 350 2.0 5.0 0.00 0.00 0.00 80 1012.9
20260508013722 75 37 2.0 6.0 0.00 0.00 0.00 80 1012.9
20260508013618 75 312 2.0 6.0 0.00 0.00 0.00 80 1012.8
20260508013515 75 289 2.0 6.0 0.00 0.00 0.00 80 1012.8
20260508013420 75 37 2.0 6.0 0.00 0.00 0.00 80 1012.8
20260508013415 75 21 2.0 6.0 0.00 0.00 0.00 80 1012.8
20260508013315 75 36 2.0 6.0 0.00 0.00 0.00 80 1012.7
20260508013215 75 0 2.0 6.0 0.00 0.00 0.00 80 1012.7
20260508013115 75 330 2.0 6.0 0.00 0.00 0.00 80 1012.7
20260508013012 75 275 2.0 6.0 0.00 0.00 0.00 80 1012.7
20260508012917 75 352 2.0 6.0 0.00 0.00 0.00 80 1012.7
20260508012913 75 347 2.0 6.0 0.00 0.00 0.00 80 1012.7
20260508012812 75 9 2.0 6.0 0.00 0.00 0.00 80 1012.7
20260508012712 75 352 2.0 5.0 0.00 0.00 0.00 80 1012.7
20260508012635 75 30 2.0 5.0 0.00 0.00 0.00 80 1012.7
20260508012613 75 358 2.0 5.0 0.00 0.00 0.00 80 1012.8
20260508012522 75 18 2.0 5.0 0.00 0.00 0.00 80 1012.7
20260508012413 75 7 2.0 5.0 0.00 0.00 0.00 80 1012.7
20260508012309 75 42 2.0 5.0 0.00 0.00 0.00 80 1012.7
20260508012209 75 343 2.0 4.0 0.00 0.00 0.00 80 1012.7
20260508012109 75 23 2.0 4.0 0.00 0.00 0.00 80 1012.7
20260508012010 76 8 1.0 4.0 0.00 0.00 0.00 80 1012.7
20260508011918 76 314 1.0 4.0 0.00 0.00 0.00 80 1012.8
20260508011904 76 13 1.0 4.0 0.00 0.00 0.00 80 1012.8
20260508011804 76 18 2.0 4.0 0.00 0.00 0.00 80 1012.8
20260508011701 76 24 1.0 4.0 0.00 0.00 0.00 80 1012.9
20260508011558 76 355 1.0 4.0 0.00 0.00 0.00 80 1012.8
20260508011452 76 28 2.0 5.0 0.00 0.00 0.00 80 1012.8
20260508011417 76 322 2.0 5.0 0.00 0.00 0.00 80 1012.8
20260508011352 76 50 2.0 5.0 0.00 0.00 0.00 80 1012.8
20260508011249 76 8 2.0 6.0 0.00 0.00 0.00 80 1012.7
20260508011142 76 326 2.0 6.0 0.00 0.00 0.00 80 1012.7
20260508011042 76 309 2.0 6.0 0.00 0.00 0.00 80 1012.7
20260508010942 76 349 2.0 6.0 0.00 0.00 0.00 80 1012.7
20260508010914 76 11 2.0 6.0 0.00 0.00 0.00 80 1012.7
20260508010839 76 31 2.0 6.0 0.00 0.00 0.00 80 1012.7
20260508010739 76 20 2.0 6.0 0.00 0.00 0.00 80 1012.7
20260508010639 76 24 2.0 6.0 0.00 0.00 0.00 80 1012.7
20260508010539 76 32 2.0 6.0 0.00 0.00 0.00 80 1012.7
20260508010437 76 51 2.0 6.0 0.00 0.00 0.00 80 1012.8
20260508010412 76 38 1.0 6.0 0.00 0.00 0.00 80 1012.8
20260508010334 76 264 1.0 6.0 0.00 0.00 0.00 80 1012.8
20260508010234 76 12 1.0 6.0 0.00 0.00 0.00 80 1012.7
20260508010134 76 23 1.0 4.0 0.00 0.00 0.00 80 1012.7
20260508010034 76 125 1.0 4.0 0.00 0.00 0.00 80 1012.7
20260508005931 76 67 2.0 4.0 0.00 0.00 0.00 80 1012.7
20260508005911 76 34 2.0 4.0 0.00 0.00 0.00 80 1012.7
20260508005828 76 16 2.0 4.0 0.00 0.00 0.00 81 1012.7
20260508005727 76 56 2.0 6.0 0.00 0.00 0.00 81 1012.7
20260508005629 76 61 2.0 6.0 0.00 0.00 0.00 80 1012.6
20260508005528 76 0 2.0 6.0 0.00 0.00 0.00 80 1012.6
20260508005428 76 5 2.0 7.0 0.00 0.00 0.00 80 1012.6
20260508005411 76 0 2.0 7.0 0.00 0.00 0.00 80 1012.6
20260508005328 76 343 2.0 7.0 0.00 0.00 0.00 80 1012.6
20260508005228 76 29 3.0 7.0 0.00 0.00 0.00 80 1012.6
20260508005125 76 31 3.0 7.0 0.00 0.00 0.00 80 1012.5
20260508005025 76 7 3.0 7.0 0.00 0.00 0.00 80 1012.5
20260508004922 76 58 3.0 7.0 0.00 0.00 0.00 80 1012.5
20260508004909 76 16 3.0 7.0 0.00 0.00 0.00 80 1012.5
20260508004822 76 354 3.0 7.0 0.00 0.00 0.00 80 1012.5
20260508004722 76 3 3.0 7.0 0.00 0.00 0.00 80 1012.5
20260508004622 76 31 3.0 7.0 0.00 0.00 0.00 80 1012.5
20260508004522 76 354 3.0 7.0 0.00 0.00 0.00 80 1012.5
20260508004422 76 38 2.0 7.0 0.00 0.00 0.00 80 1012.5
20260508004409 76 43 2.0 6.0 0.00 0.00 0.00 80 1012.5
20260508004322 76 46 2.0 6.0 0.00 0.00 0.00 80 1012.4
20260508004222 76 0 2.0 6.0 0.00 0.00 0.00 80 1012.4
20260508004132 76 45 2.0 6.0 0.00 0.00 0.00 80 1012.4
20260508004119 76 24 2.0 6.0 0.00 0.00 0.00 80 1012.4
20260508004020 76 32 2.0 6.0 0.00 0.00 0.00 80 1012.4
20260508004015 76 347 2.0 6.0 0.00 0.00 0.00 80 1012.4
20260508003817 76 306 2.0 6.0 0.00 0.00 0.00 80 1012.4
20260508003717 76 61 2.0 6.0 0.00 0.00 0.00 80 1012.4
20260508003607 76 352 2.0 6.0 0.00 0.00 0.00 80 1012.4
20260508003508 76 5 2.0 6.0 0.00 0.00 0.00 80 1012.4
20260508003411 76 30 2.0 6.0 0.00 0.00 0.00 80 1012.4
20260508003407 76 40 2.0 6.0 0.00 0.00 0.00 80 1012.4
20260508003307 76 43 2.0 5.0 0.00 0.00 0.00 80 1012.3
20260508003207 76 298 2.0 5.0 0.00 0.00 0.00 80 1012.3
20260508003104 76 91 2.0 5.0 0.00 0.00 0.00 80 1012.3
20260508003005 76 47 2.0 5.0 0.00 0.00 0.00 80 1012.3
20260508002909 76 0 2.0 5.0 0.00 0.00 0.00 80 1012.3
20260508002904 76 340 2.0 5.0 0.00 0.00 0.00 80 1012.3
20260508002801 76 295 2.0 5.0 0.00 0.00 0.00 80 1012.3
20260508002658 76 245 2.0 5.0 0.00 0.00 0.00 80 1012.3
20260508002559 76 23 2.0 5.0 0.00 0.00 0.00 80 1012.3
20260508002459 76 44 2.0 5.0 0.00 0.00 0.00 80 1012.3
20260508002410 76 332 2.0 6.0 0.00 0.00 0.00 80 1012.3
20260508002359 76 0 2.0 6.0 0.00 0.00 0.00 80 1012.3
20260508002258 76 2 2.0 6.0 0.00 0.00 0.00 80 1012.2
20260508002158 76 31 2.0 6.0 0.00 0.00 0.00 79 1012.2
20260508002059 76 35 2.0 6.0 0.00 0.00 0.00 79 1012.3
20260508001958 76 6 2.0 6.0 0.00 0.00 0.00 79 1012.3
20260508001910 76 322 2.0 6.0 0.00 0.00 0.00 79 1012.4
20260508001859 76 15 2.0 6.0 0.00 0.00 0.00 79 1012.4
20260508001759 76 7 2.0 6.0 0.00 0.00 0.00 79 1012.5
20260508001656 76 331 2.0 6.0 0.00 0.00 0.00 79 1012.5
20260508001628 76 344 3.0 6.0 0.00 0.00 0.00 79 1012.4
20260508001552 76 344 3.0 6.0 0.00 0.00 0.00 79 1012.5
20260508001515 76 31 3.0 6.0 0.00 0.00 0.00 79 1012.4
20260508001352 76 31 3.0 6.0 0.00 0.00 0.00 79 1012.4
20260508001252 76 15 3.0 6.0 0.00 0.00 0.00 79 1012.5
20260508001153 76 64 3.0 6.0 0.00 0.00 0.00 79 1012.5
20260508001053 76 328 3.0 6.0 0.00 0.00 0.00 79 1012.4
20260508000953 76 33 3.0 6.0 0.00 0.00 0.00 79 1012.4
20260508000910 76 359 3.0 6.0 0.00 0.00 0.00 79 1012.4
20260508000849 76 62 3.0 6.0 0.00 0.00 0.00 79 1012.4
20260508000749 76 43 3.0 6.0 0.00 0.00 0.00 79 1012.4
20260508000651 76 29 3.0 5.0 0.00 0.00 0.00 79 1012.4
20260508000626 76 41 2.0 6.0 0.00 0.00 0.00 79 1012.5
20260508000547 76 24 2.0 5.0 0.00 0.00 0.00 79 1012.4
20260508000513 76 45 2.0 6.0 0.00 0.00 0.00 79 1012.5
20260508000342 76 53 3.0 6.0 0.00 0.00 0.00 79 1012.5
20260508000242 76 41 3.0 7.0 0.00 0.00 0.00 79 1012.5
20260508000140 76 24 3.0 7.0 0.00 0.00 0.00 79 1012.5
20260508000032 76 36 3.0 7.0 0.00 0.00 0.00 79 1012.5
20260507235932 76 35 3.0 7.0 0.00 0.00 0.00 79 1012.5
20260507235904 76 46 3.0 7.0 0.00 0.00 0.00 79 1012.5
20260507235829 76 38 3.0 7.0 0.00 0.00 0.00 79 1012.5
20260507235729 76 10 3.0 7.0 0.00 0.00 0.00 79 1012.4
20260507235620 76 54 3.0 7.0 0.00 0.00 0.00 79 1012.4
20260507235520 76 9 3.0 7.0 0.00 0.00 0.00 79 1012.4
20260507235417 76 38 3.0 7.0 0.00 0.00 0.00 79 1012.4
20260507235357 76 16 3.0 7.0 0.00 0.00 0.00 79 1012.4
20260507235314 76 33 3.0 7.0 0.00 0.00 0.00 79 1012.4
20260507235211 76 29 3.0 7.0 0.00 0.00 0.00 79 1012.4
20260507235110 76 7 3.0 7.0 0.00 0.00 0.00 79 1012.4
20260507235008 76 6 3.0 7.0 0.00 0.00 0.00 79 1012.4
20260507234908 77 58 2.0 7.0 0.00 0.00 0.00 79 1012.4
20260507234857 77 13 2.0 7.0 0.00 0.00 0.00 79 1012.4
20260507234808 77 41 2.0 7.0 0.00 0.00 0.00 79 1012.4
20260507234707 77 44 2.0 7.0 0.00 0.00 0.00 79 1012.4
20260507234605 77 46 3.0 7.0 0.00 0.00 0.00 79 1012.4
20260507234459 77 8 3.0 7.0 0.00 0.00 0.00 79 1012.4
20260507234359 77 41 3.0 7.0 0.00 0.00 0.00 79 1012.3
20260507234259 77 58 3.0 7.0 0.00 0.00 0.00 79 1012.3
20260507234159 77 26 3.0 7.0 0.00 0.00 0.00 79 1012.3
20260507234116 77 6 3.0 7.0 0.00 0.00 0.00 79 1012.2
20260507234059 77 32 3.0 7.0 0.00 0.00 0.00 79 1012.3
20260507234009 77 59 3.0 7.0 0.00 0.00 0.00 79 1012.3
20260507234003 77 6 3.0 7.0 0.00 0.00 0.00 79 1012.2
20260507233758 77 39 3.0 7.0 0.00 0.00 0.00 78 1012.3
20260507233657 77 36 3.0 7.0 0.00 0.00 0.00 78 1012.3
20260507233557 77 20 2.0 7.0 0.00 0.00 0.00 78 1012.3
20260507233457 77 22 2.0 7.0 0.00 0.00 0.00 79 1012.3
20260507233401 77 52 2.0 7.0 0.00 0.00 0.00 79 1012.3
20260507233357 77 75 2.0 7.0 0.00 0.00 0.00 79 1012.3
20260507233257 77 53 2.0 7.0 0.00 0.00 0.00 79 1012.4
20260507233153 77 25 2.0 7.0 0.00 0.00 0.00 79 1012.4
20260507233053 77 32 2.0 5.0 0.00 0.00 0.00 79 1012.4
20260507232953 77 5 2.0 4.0 0.00 0.00 0.00 79 1012.4
20260507232853 77 39 2.0 4.0 0.00 0.00 0.00 79 1012.4
20260507232753 77 41 2.0 4.0 0.00 0.00 0.00 79 1012.4
20260507232653 77 80 2.0 7.0 0.00 0.00 0.00 79 1012.4
20260507232553 77 70 2.0 7.0 0.00 0.00 0.00 79 1012.4
20260507232453 77 25 2.0 7.0 0.00 0.00 0.00 79 1012.4
20260507232357 77 44 3.0 7.0 0.00 0.00 0.00 78 1012.4
20260507232353 77 60 3.0 7.0 0.00 0.00 0.00 78 1012.4
20260507232247 77 69 3.0 7.0 0.00 0.00 0.00 78 1012.4
20260507232148 77 347 3.0 7.0 0.00 0.00 0.00 78 1012.3
20260507232041 77 56 3.0 7.0 0.00 0.00 0.00 78 1012.3
20260507231941 77 77 3.0 7.0 0.00 0.00 0.00 79 1012.3
20260507231855 77 48 3.0 7.0 0.00 0.00 0.00 78 1012.3
20260507231841 77 352 3.0 7.0 0.00 0.00 0.00 78 1012.3
20260507231741 77 39 3.0 7.0 0.00 0.00 0.00 78 1012.3
20260507231641 77 3 3.0 7.0 0.00 0.00 0.00 78 1012.3
20260507231541 77 1 3.0 7.0 0.00 0.00 0.00 78 1012.3
20260507231441 77 38 3.0 8.0 0.00 0.00 0.00 78 1012.3
20260507231352 77 34 3.0 8.0 0.00 0.00 0.00 78 1012.3
20260507231341 77 31 3.0 8.0 0.00 0.00 0.00 78 1012.3
20260507231241 77 353 3.0 8.0 0.00 0.00 0.00 79 1012.3
20260507231141 77 10 3.0 8.0 0.00 0.00 0.00 79 1012.3
20260507231041 77 42 3.0 8.0 0.00 0.00 0.00 79 1012.3
20260507230938 77 19 3.0 8.0 0.00 0.00 0.00 79 1012.4
20260507230852 77 47 3.0 8.0 0.00 0.00 0.00 78 1012.4
20260507230738 77 20 3.0 8.0 0.00 0.00 0.00 78 1012.3
20260507230638 77 33 3.0 8.0 0.00 0.00 0.00 78 1012.3
20260507230539 77 33 3.0 8.0 0.00 0.00 0.00 78 1012.3
20260507230439 76 46 3.0 8.0 0.00 0.00 0.00 79 1012.3
20260507230353 76 5 2.0 8.0 0.00 0.00 0.00 79 1012.3
20260507230339 76 14 2.0 8.0 0.00 0.00 0.00 79 1012.3
20260507230239 76 12 2.0 5.0 0.00 0.00 0.00 79 1012.3
20260507230139 76 51 2.0 5.0 0.00 0.00 0.00 79 1012.3
20260507230039 76 356 2.0 5.0 0.00 0.00 0.00 79 1012.3
20260507225936 76 49 2.0 5.0 0.00 0.00 0.00 79 1012.3
20260507225849 77 26 2.0 4.0 0.00 0.00 0.00 79 1012.4
20260507225833 77 58 2.0 4.0 0.00 0.00 0.00 79 1012.4
20260507225730 77 27 2.0 4.0 0.00 0.00 0.00 79 1012.4
20260507225627 77 53 2.0 4.0 0.00 0.00 0.00 79 1012.4
20260507225524 77 20 2.0 4.0 0.00 0.00 0.00 79 1012.5
20260507225421 77 28 2.0 4.0 0.00 0.00 0.00 79 1012.5
20260507225349 77 342 2.0 4.0 0.00 0.00 0.00 79 1012.5
20260507225318 77 34 2.0 4.0 0.00 0.00 0.00 79 1012.5
20260507225209 77 43 2.0 4.0 0.00 0.00 0.00 78 1012.5
20260507225109 77 19 2.0 5.0 0.00 0.00 0.00 78 1012.5
20260507225009 77 4 2.0 5.0 0.00 0.00 0.00 78 1012.5
20260507224906 77 358 2.0 5.0 0.00 0.00 0.00 78 1012.5
20260507224850 77 20 2.0 5.0 0.00 0.00 0.00 78 1012.5
20260507224803 77 56 2.0 5.0 0.00 0.00 0.00 78 1012.5
20260507224700 77 77 2.0 6.0 0.00 0.00 0.00 78 1012.4
20260507224600 77 262 2.0 6.0 0.00 0.00 0.00 78 1012.4
20260507224500 77 33 2.0 6.0 0.00 0.00 0.00 78 1012.4
20260507224359 78 9 3.0 6.0 0.00 0.00 0.00 78 1012.4
20260507224347 78 46 3.0 6.0 0.00 0.00 0.00 78 1012.4
20260507224257 78 70 3.0 6.0 0.00 0.00 0.00 78 1012.4
20260507224154 78 46 3.0 6.0 0.00 0.00 0.00 78 1012.4
20260507224054 78 8 2.0 6.0 0.00 0.00 0.00 77 1012.4
20260507223954 78 5 2.0 6.0 0.00 0.00 0.00 77 1012.4
20260507223854 78 37 2.0 6.0 0.00 0.00 0.00 77 1012.4
20260507223847 78 54 2.0 6.0 0.00 0.00 0.00 77 1012.4
20260507223754 78 16 2.0 6.0 0.00 0.00 0.00 77 1012.3
20260507223654 78 6 2.0 6.0 0.00 0.00 0.00 77 1012.3
20260507223554 78 20 2.0 6.0 0.00 0.00 0.00 77 1012.3
20260507223451 78 37 2.0 6.0 0.00 0.00 0.00 77 1012.3
20260507223353 78 26 2.0 4.0 0.00 0.00 0.00 77 1012.2
20260507223347 78 30 2.0 4.0 0.00 0.00 0.00 77 1012.2
20260507223251 78 20 1.0 4.0 0.00 0.00 0.00 77 1012.2
20260507223152 78 24 2.0 4.0 0.00 0.00 0.00 76 1012.2
20260507223050 78 40 2.0 4.0 0.00 0.00 0.00 76 1012.2
20260507222950 78 35 2.0 4.0 0.00 0.00 0.00 76 1012.2
20260507222852 78 356 2.0 4.0 0.00 0.00 0.00 76 1012.2
20260507222846 78 222 2.0 4.0 0.00 0.00 0.00 76 1012.2
20260507222751 78 22 2.0 4.0 0.00 0.00 0.00 77 1012.3
20260507222652 78 270 2.0 4.0 0.00 0.00 0.00 77 1012.3
20260507222549 78 355 2.0 4.0 0.00 0.00 0.00 77 1012.2
20260507222445 78 277 2.0 4.0 0.00 0.00 0.00 76 1012.2
20260507222341 78 21 2.0 4.0 0.00 0.00 0.00 76 1012.2
20260507222245 78 348 2.0 4.0 0.00 0.00 0.00 76 1012.2
20260507222145 78 329 2.0 4.0 0.00 0.00 0.00 77 1012.2
20260507222045 78 5 2.0 6.0 0.00 0.00 0.00 77 1012.2
20260507221945 78 22 2.0 6.0 0.00 0.00 0.00 76 1012.2
20260507221846 78 351 2.0 6.0 0.00 0.00 0.00 77 1012.2
20260507221841 78 347 2.0 6.0 0.00 0.00 0.00 77 1012.2
20260507221745 78 16 2.0 6.0 0.00 0.00 0.00 77 1012.2
20260507221645 78 2 3.0 7.0 0.00 0.00 0.00 77 1012.2
20260507221545 78 3 3.0 7.0 0.00 0.00 0.00 77 1012.2
20260507221445 78 16 3.0 7.0 0.00 0.00 0.00 77 1012.2
20260507221346 78 42 3.0 7.0 0.00 0.00 0.00 77 1012.2
20260507221339 78 58 3.0 7.0 0.00 0.00 0.00 77 1012.2
20260507221245 78 28 4.0 7.0 0.00 0.00 0.00 76 1012.3
20260507221143 78 29 4.0 7.0 0.00 0.00 0.00 76 1012.3
20260507221040 78 356 3.0 7.0 0.00 0.00 0.00 76 1012.3
20260507220939 78 15 3.0 7.0 0.00 0.00 0.00 76 1012.3
20260507220840 78 357 3.0 7.0 0.00 0.00 0.00 75 1012.3
20260507220836 78 34 3.0 7.0 0.00 0.00 0.00 75 1012.3
20260507220736 78 321 3.0 7.0 0.00 0.00 0.00 75 1012.3
20260507220636 78 2 3.0 7.0 0.00 0.00 0.00 76 1012.4
20260507220603 78 7 2.0 6.0 0.00 0.00 0.00 76 1012.5
20260507220536 78 38 3.0 7.0 0.00 0.00 0.00 75 1012.4
20260507220446 78 22 2.0 6.0 0.00 0.00 0.00 76 1012.5
20260507220336 78 31 2.0 6.0 0.00 0.00 0.00 76 1012.5
20260507220237 78 20 2.0 6.0 0.00 0.00 0.00 76 1012.5
20260507220137 78 333 2.0 4.0 0.00 0.00 0.00 76 1012.4
20260507220037 78 315 2.0 7.0 0.00 0.00 0.00 76 1012.4
20260507215936 78 304 2.0 7.0 0.00 0.00 0.00 76 1012.4
20260507215836 78 342 2.0 7.0 0.00 0.00 0.00 76 1012.4
20260507215737 78 41 2.0 7.0 0.00 0.00 0.00 76 1012.4
20260507215636 78 3 2.0 7.0 0.00 0.00 0.00 76 1012.4
20260507215536 78 0 2.0 7.0 0.00 0.00 0.00 75 1012.4
20260507215431 78 55 2.0 7.0 0.00 0.00 0.00 75 1012.4
20260507215338 78 29 2.0 7.0 0.00 0.00 0.00 75 1012.4
20260507215331 78 342 2.0 7.0 0.00 0.00 0.00 75 1012.4
20260507215228 78 64 2.0 7.0 0.00 0.00 0.00 75 1012.4
20260507215125 78 74 2.0 7.0 0.00 0.00 0.00 74 1012.4
20260507215025 78 359 2.0 7.0 0.00 0.00 0.00 74 1012.4
20260507214925 78 37 2.0 7.0 0.00 0.00 0.00 76 1012.4
20260507214839 78 67 2.0 7.0 0.00 0.00 0.00 76 1012.4
20260507214825 78 20 2.0 7.0 0.00 0.00 0.00 76 1012.4
20260507214718 78 330 2.0 7.0 0.00 0.00 0.00 75 1012.4
20260507214616 78 39 3.0 7.0 0.00 0.00 0.00 75 1012.3
20260507214513 78 57 3.0 9.0 0.00 0.00 0.00 75 1012.3
20260507214413 78 353 3.0 9.0 0.00 0.00 0.00 76 1012.4
20260507214339 78 22 4.0 9.0 0.00 0.00 0.00 76 1012.4
20260507214313 78 21 4.0 9.0 0.00 0.00 0.00 76 1012.4
20260507214206 78 342 3.0 9.0 0.00 0.00 0.00 76 1012.4
20260507214104 78 18 3.0 9.0 0.00 0.00 0.00 76 1012.4
20260507213954 78 29 3.0 9.0 0.00 0.00 0.00 76 1012.4
20260507213854 78 341 3.0 9.0 0.00 0.00 0.00 76 1012.4
20260507213836 78 74 3.0 9.0 0.00 0.00 0.00 76 1012.4
20260507213746 77 13 4.0 9.0 0.00 0.00 0.00 77 1012.4
20260507213631 77 2 4.0 9.0 0.00 0.00 0.00 77 1012.4
20260507213525 77 25 4.0 9.0 0.00 0.00 0.00 77 1012.4
20260507213422 77 23 4.0 9.0 0.00 0.00 0.00 77 1012.4
20260507213335 77 46 4.0 9.0 0.00 0.00 0.00 77 1012.4
20260507213319 77 29 4.0 9.0 0.00 0.00 0.00 77 1012.4
20260507213219 77 28 4.0 9.0 0.00 0.00 0.00 77 1012.4
20260507213101 77 40 4.0 9.0 0.00 0.00 0.00 76 1012.5
20260507212955 77 358 4.0 9.0 0.00 0.00 0.00 76 1012.5
20260507212855 77 81 4.0 9.0 0.00 0.00 0.00 76 1012.5
20260507212824 77 12 4.0 9.0 0.00 0.00 0.00 76 1012.5
20260507212755 77 28 4.0 8.0 0.00 0.00 0.00 76 1012.6
20260507212651 77 30 3.0 8.0 0.00 0.00 0.00 76 1012.6
20260507212549 78 36 3.0 8.0 0.00 0.00 0.00 76 1012.6
20260507212449 78 45 3.0 8.0 0.00 0.00 0.00 76 1012.5
20260507212349 78 57 2.0 6.0 0.00 0.00 0.00 76 1012.6
20260507212324 78 65 2.0 6.0 0.00 0.00 0.00 76 1012.6
20260507212249 78 29 2.0 7.0 0.00 0.00 0.00 76 1012.6
20260507212134 78 47 2.0 7.0 0.00 0.00 0.00 75 1012.6
20260507212034 78 355 2.0 8.0 0.00 0.00 0.00 75 1012.6
20260507211931 78 14 2.0 8.0 0.00 0.00 0.00 75 1012.6
20260507211829 78 357 2.0 8.0 0.00 0.00 0.00 75 1012.7
20260507211823 78 349 2.0 8.0 0.00 0.00 0.00 75 1012.7
20260507211728 78 46 2.0 8.0 0.00 0.00 0.00 76 1012.8
20260507211628 78 10 2.0 8.0 0.00 0.00 0.00 76 1012.8
20260507211527 78 340 2.0 8.0 0.00 0.00 0.00 77 1012.8
20260507211426 78 348 3.0 8.0 0.00 0.00 0.00 76 1012.8
20260507211326 78 329 3.0 8.0 0.00 0.00 0.00 75 1012.8
20260507211223 78 40 3.0 8.0 0.00 0.00 0.00 75 1012.8
20260507211122 78 335 3.0 8.0 0.00 0.00 0.00 75 1012.8
20260507211023 78 351 3.0 8.0 0.00 0.00 0.00 75 1012.8
20260507210923 78 342 3.0 8.0 0.00 0.00 0.00 76 1012.7
20260507210828 78 351 3.0 8.0 0.00 0.00 0.00 75 1012.7
20260507210823 78 331 3.0 8.0 0.00 0.00 0.00 75 1012.7
20260507210720 78 61 3.0 8.0 0.00 0.00 0.00 76 1012.7
20260507210616 78 22 3.0 8.0 0.00 0.00 0.00 76 1012.7
20260507210548 77 350 3.0 8.0 0.00 0.00 0.00 75 1012.7
20260507210516 77 335 3.0 7.0 0.00 0.00 0.00 76 1012.7
20260507210430 77 14 3.0 7.0 0.00 0.00 0.00 76 1012.7
20260507210314 77 24 3.0 8.0 0.00 0.00 0.00 75 1012.7
20260507210214 77 68 3.0 8.0 0.00 0.00 0.00 75 1012.7
20260507210114 77 15 3.0 8.0 0.00 0.00 0.00 76 1012.8
20260507210013 77 12 3.0 8.0 0.00 0.00 0.00 76 1012.8
20260507205914 77 357 3.0 8.0 0.00 0.00 0.00 76 1012.8
20260507205824 77 39 3.0 8.0 0.00 0.00 0.00 76 1012.8
20260507205813 77 32 3.0 8.0 0.00 0.00 0.00 76 1012.8
20260507205713 77 43 3.0 8.0 0.00 0.00 0.00 76 1012.8
20260507205613 77 324 3.0 8.0 0.00 0.00 0.00 76 1012.8
20260507205513 77 9 3.0 8.0 0.00 0.00 0.00 76 1012.8
20260507205413 77 37 3.0 8.0 0.00 0.00 0.00 76 1012.8
20260507205324 77 3 2.0 7.0 0.00 0.00 0.00 76 1012.9
20260507205313 77 42 2.0 7.0 0.00 0.00 0.00 76 1012.9
20260507205213 77 49 2.0 7.0 0.00 0.00 0.00 75 1012.9
20260507205113 77 61 2.0 7.0 0.00 0.00 0.00 75 1012.9
20260507205013 78 33 2.0 6.0 0.00 0.00 0.00 76 1012.9
20260507204913 78 51 2.0 4.0 0.00 0.00 0.00 75 1012.9
20260507204819 78 30 2.0 4.0 0.00 0.00 0.00 75 1012.9
20260507204813 78 325 2.0 4.0 0.00 0.00 0.00 75 1012.9
20260507204713 78 103 2.0 6.0 0.00 0.00 0.00 75 1013.0
20260507204613 78 76 2.0 6.0 0.00 0.00 0.00 75 1013.0
20260507204513 78 42 2.0 6.0 0.00 0.00 0.00 76 1013.0
20260507204413 77 13 2.0 6.0 0.00 0.00 0.00 75 1013.1
20260507204318 77 6 2.0 6.0 0.00 0.00 0.00 75 1013.1
20260507204313 77 31 2.0 6.0 0.00 0.00 0.00 75 1013.1
20260507204209 77 7 2.0 6.0 0.00 0.00 0.00 76 1013.1
20260507204104 77 53 2.0 6.0 0.00 0.00 0.00 76 1013.1
20260507204001 77 37 2.0 6.0 0.00 0.00 0.00 76 1013.1
20260507203900 77 347 2.0 6.0 0.00 0.00 0.00 76 1013.1
20260507203815 77 58 2.0 6.0 0.00 0.00 0.00 76 1013.1
20260507203800 77 356 2.0 6.0 0.00 0.00 0.00 76 1013.1
20260507203700 77 239 2.0 6.0 0.00 0.00 0.00 76 1013.1
20260507203600 77 301 2.0 6.0 0.00 0.00 0.00 76 1013.1
20260507203541 76 21 2.0 6.0 0.00 0.00 0.00 76 1013.2
20260507203500 76 312 2.0 6.0 0.00 0.00 0.00 75 1013.2
20260507203421 76 320 2.0 6.0 0.00 0.00 0.00 76 1013.2
20260507203300 76 50 2.0 6.0 0.00 0.00 0.00 77 1013.2
20260507203200 76 347 2.0 6.0 0.00 0.00 0.00 77 1013.2
20260507203100 76 296 2.0 6.0 0.00 0.00 0.00 77 1013.2
20260507202959 76 196 2.0 6.0 0.00 0.00 0.00 78 1013.2
20260507202901 76 323 2.0 6.0 0.00 0.00 0.00 76 1013.2
20260507202816 76 301 2.0 6.0 0.00 0.00 0.00 76 1013.2
20260507202753 76 173 3.0 6.0 0.00 0.00 0.00 76 1013.2
20260507202653 76 7 3.0 7.0 0.00 0.00 0.00 77 1013.2
20260507202547 76 345 3.0 7.0 0.00 0.00 0.00 77 1013.2
20260507202447 76 60 3.0 7.0 0.00 0.00 0.00 77 1013.2
20260507202346 76 343 3.0 7.0 0.00 0.00 0.00 78 1013.2
20260507202313 76 328 3.0 7.0 0.00 0.00 0.00 78 1013.2
20260507202241 75 30 3.0 7.0 0.00 0.00 0.00 78 1013.3
20260507202138 75 238 3.0 7.0 0.00 0.00 0.00 76 1013.2
20260507202038 75 359 3.0 7.0 0.00 0.00 0.00 76 1013.2
20260507201938 75 55 3.0 7.0 0.00 0.00 0.00 77 1013.3
20260507201835 75 37 3.0 7.0 0.00 0.00 0.00 76 1013.4
20260507201812 75 15 3.0 7.0 0.00 0.00 0.00 76 1013.4
20260507201759 75 333 3.0 8.0 0.00 0.00 0.00 76 1013.5
20260507201732 75 33 3.0 7.0 0.00 0.00 0.00 76 1013.4
20260507201646 75 16 3.0 7.0 0.00 0.00 0.00 77 1013.3
20260507201532 75 346 2.0 7.0 0.00 0.00 0.00 77 1013.4
20260507201432 75 41 3.0 7.0 0.00 0.00 0.00 77 1013.4
20260507201418 75 334 3.0 7.0 0.00 0.00 0.00 76 1013.5
20260507201229 75 346 3.0 8.0 0.00 0.00 0.00 76 1013.5
20260507201126 75 8 3.0 8.0 0.00 0.00 0.00 76 1013.5
20260507201026 75 317 3.0 8.0 0.00 0.00 0.00 77 1013.5
20260507200926 75 36 3.0 8.0 0.00 0.00 0.00 77 1013.5
20260507200823 75 310 3.0 8.0 0.00 0.00 0.00 77 1013.5
20260507200813 75 344 3.0 8.0 0.00 0.00 0.00 77 1013.5
20260507200723 75 253 3.0 8.0 0.00 0.00 0.00 76 1013.5
20260507200623 75 21 3.0 8.0 0.00 0.00 0.00 77 1013.5
20260507200523 75 340 2.0 8.0 0.00 0.00 0.00 77 1013.5
20260507200420 75 44 2.0 8.0 0.00 0.00 0.00 76 1013.6
20260507200320 75 14 2.0 8.0 0.00 0.00 0.00 76 1013.6
20260507200312 75 8 2.0 8.0 0.00 0.00 0.00 76 1013.6
20260507200220 76 1 2.0 8.0 0.00 0.00 0.00 76 1013.6
20260507200120 75 55 2.0 8.0 0.00 0.00 0.00 78 1013.6
20260507200020 75 326 2.0 7.0 0.00 0.00 0.00 78 1013.6
20260507195920 75 275 2.0 7.0 0.00 0.00 0.00 78 1013.6
20260507195820 75 307 2.0 7.0 0.00 0.00 0.00 78 1013.6
20260507195813 75 249 2.0 7.0 0.00 0.00 0.00 78 1013.6
20260507195721 75 302 2.0 7.0 0.00 0.00 0.00 77 1013.6
20260507195620 75 322 2.0 7.0 0.00 0.00 0.00 77 1013.6
20260507195520 75 10 2.0 7.0 0.00 0.00 0.00 77 1013.6
20260507195420 75 359 2.0 7.0 0.00 0.00 0.00 78 1013.6
20260507195320 75 268 2.0 7.0 0.00 0.00 0.00 78 1013.6
20260507195313 75 296 2.0 7.0 0.00 0.00 0.00 78 1013.6
20260507195218 75 304 2.0 7.0 0.00 0.00 0.00 77 1013.6
20260507195114 75 19 2.0 7.0 0.00 0.00 0.00 76 1013.6
20260507195014 75 37 2.0 7.0 0.00 0.00 0.00 77 1013.6
20260507194914 75 340 2.0 7.0 0.00 0.00 0.00 77 1013.6
20260507194811 75 16 2.0 4.0 0.00 0.00 0.00 77 1013.6
20260507194709 74 348 2.0 4.0 0.00 0.00 0.00 77 1013.6
20260507194608 74 303 2.0 4.0 0.00 0.00 0.00 78 1013.6
20260507194526 74 310 2.0 4.0 0.00 0.00 0.00 78 1013.6
20260507194509 74 266 2.0 4.0 0.00 0.00 0.00 78 1013.6
20260507194415 74 223 2.0 4.0 0.00 0.00 0.00 78 1013.6
20260507194410 74 310 2.0 4.0 0.00 0.00 0.00 78 1013.6
20260507194206 74 281 2.0 4.0 0.00 0.00 0.00 78 1013.6
20260507194105 74 350 2.0 4.0 0.00 0.00 0.00 78 1013.6
20260507194005 74 29 2.0 4.0 0.00 0.00 0.00 78 1013.6
20260507193905 74 291 2.0 4.0 0.00 0.00 0.00 79 1013.7
20260507193805 73 305 2.0 4.0 0.00 0.00 0.00 78 1013.7
20260507193706 73 340 2.0 4.0 0.00 0.00 0.00 78 1013.7
20260507193603 73 319 2.0 4.0 0.00 0.00 0.00 79 1013.8
20260507193502 73 346 2.0 4.0 0.00 0.00 0.00 79 1013.8
20260507193402 73 0 2.0 5.0 0.00 0.00 0.00 79 1013.8
20260507193307 73 27 2.0 5.0 0.00 0.00 0.00 79 1013.8
20260507193302 73 19 2.0 5.0 0.00 0.00 0.00 79 1013.8
20260507193202 73 2 2.0 5.0 0.00 0.00 0.00 80 1013.8
20260507193102 73 26 2.0 5.0 0.00 0.00 0.00 80 1013.8
20260507193001 73 171 2.0 5.0 0.00 0.00 0.00 80 1013.8
20260507192859 73 31 2.0 5.0 0.00 0.00 0.00 79 1013.9
20260507192805 73 50 2.0 5.0 0.00 0.00 0.00 79 1013.9
20260507192757 73 44 2.0 5.0 0.00 0.00 0.00 79 1013.9
20260507192654 73 33 2.0 5.0 0.00 0.00 0.00 79 1013.9
20260507192554 73 21 2.0 5.0 0.00 0.00 0.00 79 1013.9
20260507192444 73 25 2.0 5.0 0.00 0.00 0.00 80 1013.9
20260507192344 73 53 2.0 4.0 0.00 0.00 0.00 81 1014.0
20260507192305 73 318 2.0 4.0 0.00 0.00 0.00 81 1014.0
20260507192244 73 37 2.0 4.0 0.00 0.00 0.00 81 1014.0
20260507192144 72 0 2.0 5.0 0.00 0.00 0.00 80 1014.0
20260507192039 72 302 2.0 5.0 0.00 0.00 0.00 80 1014.0
20260507191936 72 301 2.0 5.0 0.00 0.00 0.00 80 1014.0
20260507191833 72 1 2.0 5.0 0.00 0.00 0.00 80 1014.0
20260507191755 72 323 2.0 5.0 0.00 0.00 0.00 80 1014.0
20260507191733 72 250 2.0 5.0 0.00 0.00 0.00 80 1014.0
20260507191630 72 3 2.0 5.0 0.00 0.00 0.00 80 1014.0
20260507191530 72 38 2.0 5.0 0.00 0.00 0.00 80 1014.0
20260507191427 72 25 2.0 5.0 0.00 0.00 0.00 80 1014.0
20260507191327 72 52 2.0 5.0 0.00 0.00 0.00 80 1014.0
20260507191250 72 95 2.0 5.0 0.00 0.00 0.00 80 1014.0
20260507191224 72 23 1.0 5.0 0.00 0.00 0.00 80 1014.0
20260507191121 72 17 1.0 5.0 0.00 0.00 0.00 79 1014.0
20260507191021 72 54 1.0 5.0 0.00 0.00 0.00 79 1014.1
20260507190917 72 35 1.0 5.0 0.00 0.00 0.00 80 1014.1
20260507190817 72 20 1.0 5.0 0.00 0.00 0.00 80 1014.1
20260507190750 72 357 1.0 3.0 0.00 0.00 0.00 80 1014.1
20260507190714 72 342 1.0 3.0 0.00 0.00 0.00 80 1014.1
20260507190615 72 237 1.0 4.0 0.00 0.00 0.00 80 1014.1
20260507190515 72 277 1.0 4.0 0.00 0.00 0.00 80 1014.1
20260507190415 72 347 1.0 4.0 0.00 0.00 0.00 80 1014.1
20260507190315 72 2 1.0 4.0 0.00 0.00 0.00 80 1014.1
20260507190250 72 263 1.0 4.0 0.00 0.00 0.00 80 1014.1
20260507190212 72 326 1.0 4.0 0.00 0.00 0.00 80 1014.1
20260507190112 72 300 1.0 4.0 0.00 0.00 0.00 80 1014.1
20260507190012 72 60 1.0 4.0 0.00 0.00 0.00 80 1014.1
20260507185909 72 263 1.0 4.0 0.00 0.00 0.00 80 1014.2
20260507185809 72 326 1.0 4.0 0.00 0.00 0.00 80 1014.2
20260507185750 73 271 1.0 4.0 0.00 0.00 0.00 80 1014.2
20260507185709 73 296 1.0 4.0 0.00 0.00 0.00 80 1014.2
20260507185609 72 321 1.0 4.0 0.00 0.00 0.00 80 1014.2
20260507185509 72 294 1.0 4.0 0.00 0.00 0.00 80 1014.2
20260507185410 72 312 1.0 3.0 0.00 0.00 0.00 80 1014.2
20260507185309 72 298 1.0 3.0 0.00 0.00 0.00 80 1014.2
20260507185247 72 252 1.0 3.0 0.00 0.00 0.00 80 1014.2
20260507185206 72 22 1.0 3.0 0.00 0.00 0.00 80 1014.2
20260507185106 72 350 2.0 7.0 0.00 0.00 0.00 80 1014.2
20260507185006 72 0 2.0 7.0 0.00 0.00 0.00 80 1014.2
20260507184906 72 305 2.0 7.0 0.00 0.00 0.00 79 1014.2
20260507184806 72 278 2.0 7.0 0.00 0.00 0.00 80 1014.2
20260507184747 72 298 2.0 7.0 0.00 0.00 0.00 80 1014.2
20260507184704 72 277 2.0 7.0 0.00 0.00 0.00 80 1014.2
20260507184557 72 336 3.0 7.0 0.00 0.00 0.00 80 1014.2
20260507184454 72 318 3.0 7.0 0.00 0.00 0.00 80 1014.2
20260507184352 72 345 3.0 7.0 0.00 0.00 0.00 80 1014.2
20260507184246 72 315 3.0 7.0 0.00 0.00 0.00 80 1014.2
20260507184152 72 38 2.0 6.0 0.00 0.00 0.00 79 1014.2
20260507184049 73 48 2.0 6.0 0.00 0.00 0.00 79 1014.2
20260507183949 73 19 2.0 6.0 0.00 0.00 0.00 79 1014.2
20260507183845 73 40 2.0 6.0 0.00 0.00 0.00 79 1014.2
20260507183746 73 352 2.0 6.0 0.00 0.00 0.00 79 1014.2
20260507183637 73 15 2.0 6.0 0.00 0.00 0.00 79 1014.3
20260507183537 73 335 2.0 4.0 0.00 0.00 0.00 79 1014.3
20260507183436 73 293 2.0 4.0 0.00 0.00 0.00 79 1014.3
20260507183337 73 281 2.0 4.0 0.00 0.00 0.00 79 1014.3
20260507183239 73 332 2.0 4.0 0.00 0.00 0.00 79 1014.2
20260507183234 73 287 2.0 4.0 0.00 0.00 0.00 79 1014.2
20260507183132 73 242 2.0 4.0 0.00 0.00 0.00 79 1014.3
20260507183025 73 325 2.0 4.0 0.00 0.00 0.00 79 1014.3
20260507183002 73 305 2.0 5.0 0.00 0.00 0.00 78 1014.3
20260507182924 73 253 2.0 4.0 0.00 0.00 0.00 79 1014.3
20260507182844 73 277 2.0 5.0 0.00 0.00 0.00 78 1014.3
20260507182724 73 305 2.0 5.0 0.00 0.00 0.00 78 1014.3
20260507182622 73 318 2.0 5.0 0.00 0.00 0.00 79 1014.2
20260507182522 73 300 2.0 5.0 0.00 0.00 0.00 79 1014.2
20260507182421 73 299 2.0 5.0 0.00 0.00 0.00 79 1014.3
20260507182322 73 294 2.0 5.0 0.00 0.00 0.00 79 1014.3
20260507182238 73 249 2.0 5.0 0.00 0.00 0.00 78 1014.3
20260507182219 73 63 2.0 5.0 0.00 0.00 0.00 78 1014.3
20260507182116 73 35 2.0 5.0 0.00 0.00 0.00 78 1014.3
20260507182016 73 294 2.0 5.0 0.00 0.00 0.00 78 1014.3
20260507181915 73 320 2.0 5.0 0.00 0.00 0.00 78 1014.3
20260507181815 73 2 2.0 4.0 0.00 0.00 0.00 79 1014.4
20260507181736 72 282 2.0 4.0 0.00 0.00 0.00 79 1014.4
20260507181713 72 306 2.0 4.0 0.00 0.00 0.00 79 1014.4
20260507181610 72 324 2.0 4.0 0.00 0.00 0.00 78 1014.4
20260507181507 72 316 2.0 4.0 0.00 0.00 0.00 78 1014.4
20260507181501 71 345 2.0 4.0 0.00 0.00 0.00 79 1014.5
20260507181407 72 290 2.0 4.0 0.00 0.00 0.00 79 1014.4
20260507181341 72 305 2.0 4.0 0.00 0.00 0.00 79 1014.4
20260507181204 71 307 2.0 4.0 0.00 0.00 0.00 79 1014.5
20260507181104 71 312 2.0 5.0 0.00 0.00 0.00 79 1014.5
20260507181003 71 293 2.0 7.0 0.00 0.00 0.00 80 1014.5
20260507180900 71 204 2.0 7.0 0.00 0.00 0.00 80 1014.6
20260507180758 71 290 2.0 7.0 0.00 0.00 0.00 81 1014.6
20260507180733 71 306 2.0 7.0 0.00 0.00 0.00 81 1014.6
20260507180655 71 273 2.0 7.0 0.00 0.00 0.00 81 1014.6
20260507180552 70 249 2.0 7.0 0.00 0.00 0.00 81 1014.6
20260507180456 70 281 2.0 7.0 0.00 0.00 0.00 81 1014.7
20260507180449 70 11 2.0 7.0 0.00 0.00 0.00 81 1014.6
20260507180346 70 308 2.0 7.0 0.00 0.00 0.00 81 1014.7
20260507180338 70 298 2.0 7.0 0.00 0.00 0.00 81 1014.7
20260507180143 70 315 2.0 7.0 0.00 0.00 0.00 81 1014.7
20260507180043 70 32 2.0 6.0 0.00 0.00 0.00 81 1014.7
20260507175943 70 29 2.0 6.0 0.00 0.00 0.00 81 1014.7
20260507175840 70 49 2.0 7.0 0.00 0.00 0.00 81 1014.7
20260507175740 70 319 2.0 7.0 0.00 0.00 0.00 81 1014.7
20260507175732 70 6 2.0 7.0 0.00 0.00 0.00 81 1014.7
20260507175640 70 338 2.0 7.0 0.00 0.00 0.00 81 1014.7
20260507175534 70 253 2.0 7.0 0.00 0.00 0.00 82 1014.7
20260507175434 70 296 2.0 7.0 0.00 0.00 0.00 82 1014.7
20260507175334 70 120 2.0 7.0 0.00 0.00 0.00 82 1014.7
20260507175234 70 28 2.0 7.0 0.00 0.00 0.00 81 1014.7
20260507175227 70 297 2.0 7.0 0.00 0.00 0.00 81 1014.7
20260507175131 70 46 2.0 7.0 0.00 0.00 0.00 81 1014.7
20260507175031 70 307 2.0 7.0 0.00 0.00 0.00 81 1014.7
20260507174931 70 12 2.0 7.0 0.00 0.00 0.00 81 1014.7
20260507174828 70 308 2.0 6.0 0.00 0.00 0.00 82 1014.7
20260507174728 70 305 2.0 6.0 0.00 0.00 0.00 82 1014.7
20260507174625 69 58 2.0 6.0 0.00 0.00 0.00 82 1014.7
20260507174522 69 349 2.0 6.0 0.00 0.00 0.00 82 1014.7
20260507174422 69 341 2.0 7.0 0.00 0.00 0.00 82 1014.7
20260507174322 69 37 2.0 7.0 0.00 0.00 0.00 82 1014.7
20260507174226 69 71 2.0 7.0 0.00 0.00 0.00 82 1014.7
20260507174221 69 293 2.0 7.0 0.00 0.00 0.00 82 1014.7
20260507174113 69 333 2.0 7.0 0.00 0.00 0.00 82 1014.7
20260507174013 69 1 2.0 7.0 0.00 0.00 0.00 82 1014.6
20260507173913 69 356 2.0 7.0 0.00 0.00 0.00 82 1014.8
20260507173814 69 284 2.0 7.0 0.00 0.00 0.00 82 1014.8
20260507173721 69 315 2.0 7.0 0.00 0.00 0.00 82 1014.8
20260507173704 69 303 2.0 7.0 0.00 0.00 0.00 82 1014.8
20260507173604 69 38 2.0 7.0 0.00 0.00 0.00 82 1014.8
20260507173504 69 357 2.0 6.0 0.00 0.00 0.00 82 1014.8
20260507173405 69 23 2.0 6.0 0.00 0.00 0.00 82 1014.8
20260507173305 69 5 2.0 6.0 0.00 0.00 0.00 82 1014.8
20260507173222 69 345 2.0 6.0 0.00 0.00 0.00 82 1014.8
20260507173204 69 43 2.0 6.0 0.00 0.00 0.00 82 1014.8
20260507173104 69 338 2.0 5.0 0.00 0.00 0.00 82 1014.8
20260507173001 69 290 2.0 5.0 0.00 0.00 0.00 82 1014.8
20260507172846 69 356 2.0 5.0 0.00 0.00 0.00 82 1014.8
20260507172746 69 310 2.0 5.0 0.00 0.00 0.00 82 1014.8
20260507172718 69 38 1.0 5.0 0.00 0.00 0.00 82 1014.8
20260507172651 69 344 2.0 5.0 0.00 0.00 0.00 83 1014.8
20260507172540 69 339 2.0 5.0 0.00 0.00 0.00 83 1014.8
20260507172442 69 18 2.0 5.0 0.00 0.00 0.00 83 1014.8
20260507172437 69 308 2.0 5.0 0.00 0.00 0.00 83 1014.8
20260507172337 69 293 2.0 5.0 0.00 0.00 0.00 83 1014.8
20260507172318 69 224 2.0 5.0 0.00 0.00 0.00 83 1014.8
20260507172132 0 39 2.0 4.0 0.00 0.00 0.00
20260507172028 0 40 2.0 4.0 0.00 0.00 0.00
20260507171928 0 300 2.0 4.0 0.00 0.00 0.00
20260507171829 68 319 2.0 4.0 0.00 0.00 0.00 83 1014.9
20260507171729 68 295 2.0 4.0 0.00 0.00 0.00 83 1014.9
20260507171706 68 5 2.0 4.0 0.00 0.00 0.00 83 1014.9
20260507171622 68 54 2.0 4.0 0.00 0.00 0.00 83 1014.9
20260507171520 68 32 2.0 4.0 0.00 0.00 0.00 83 1014.9
20260507171404 68 265 2.0 4.0 0.00 0.00 0.00 83 1014.9
20260507171249 68 310 2.0 4.0 0.00 0.00 0.00 83 1014.9
20260507171151 68 307 2.0 4.0 0.00 0.00 0.00 83 1014.9
20260507171138 68 3 2.0 4.0 0.00 0.00 0.00 83 1014.9
20260507171032 68 307 2.0 4.0 0.00 0.00 0.00 83 1014.9
20260507170928 68 293 2.0 4.0 0.00 0.00 0.00 83 1014.9
20260507170826 68 22 2.0 4.0 0.00 0.00 0.00 84 1014.9
20260507170726 68 356 2.0 4.0 0.00 0.00 0.00 84 1014.9
20260507170648 68 2 2.0 5.0 0.00 0.00 0.00 84 1014.9
20260507170611 68 277 2.0 5.0 0.00 0.00 0.00 84 1014.9
20260507170502 68 31 2.0 7.0 0.00 0.00 0.00 84 1014.9
20260507170356 68 356 2.0 7.0 0.00 0.00 0.00 84 1014.9
20260507170252 68 311 2.0 7.0 0.00 0.00 0.00 84 1014.9
20260507170134 68 285 2.0 7.0 0.00 0.00 0.00 84 1014.9
20260507170051 68 92 2.0 7.0 0.00 0.00 0.00 84 1014.9
20260507165938 68 352 2.0 7.0 0.00 0.00 0.00 84 1014.8
20260507165838 68 291 2.0 7.0 0.00 0.00 0.00 84 1014.8
20260507165735 68 44 2.0 7.0 0.00 0.00 0.00 84 1014.8
20260507165634 68 37 2.0 7.0 0.00 0.00 0.00 84 1014.8
20260507165507 68 59 2.0 4.0 0.00 0.00 0.00 84 1014.9
20260507165403 68 314 2.0 6.0 0.00 0.00 0.00 84 1014.9
20260507165306 68 261 2.0 6.0 0.00 0.00 0.00 84 1014.9
20260507165153 68 308 2.0 6.0 0.00 0.00 0.00 84 1014.9
20260507165131 68 293 2.0 6.0 0.00 0.00 0.00 84 1014.9
20260507165045 68 296 2.0 6.0 0.00 0.00 0.00 84 1014.9
20260507164943 68 349 2.0 6.0 0.00 0.00 0.00 84 1014.9
20260507164844 68 0 2.0 6.0 0.00 0.00 0.00 84 1014.8
20260507164741 68 4 2.0 6.0 0.00 0.00 0.00 84 1014.8
20260507164640 68 327 2.0 6.0 0.00 0.00 0.00 84 1014.8
20260507164607 68 28 2.0 6.0 0.00 0.00 0.00 84 1014.8
20260507164542 68 15 2.0 9.0 0.00 0.00 0.00 84 1014.8
20260507164435 68 47 2.0 9.0 0.00 0.00 0.00 84 1014.8
20260507164335 68 39 2.0 9.0 0.00 0.00 0.00 84 1014.8
20260507164235 68 332 2.0 9.0 0.00 0.00 0.00 84 1014.8
20260507164135 68 32 3.0 9.0 0.00 0.00 0.00 84 1014.8
20260507164107 68 7 3.0 9.0 0.00 0.00 0.00 84 1014.8
20260507164032 67 297 3.0 9.0 0.00 0.00 0.00 84 1014.8
20260507163932 67 298 3.0 9.0 0.00 0.00 0.00 84 1014.8
20260507163832 67 39 3.0 9.0 0.00 0.00 0.00 84 1014.8
20260507163732 67 273 3.0 9.0 0.00 0.00 0.00 84 1014.8
20260507163632 67 10 3.0 9.0 0.00 0.00 0.00 84 1014.8
20260507163607 67 313 4.0 9.0 0.00 0.00 0.00 84 1014.8
20260507163532 67 57 3.0 8.0 0.00 0.00 0.00 85 1014.8
20260507163430 67 22 3.0 8.0 0.00 0.00 0.00 85 1014.8
20260507163329 67 33 3.0 8.0 0.00 0.00 0.00 85 1014.8
20260507163229 67 5 3.0 8.0 0.00 0.00 0.00 85 1014.9
20260507163129 67 42 3.0 8.0 0.00 0.00 0.00 86 1014.9
20260507163106 67 38 3.0 8.0 0.00 0.00 0.00 86 1014.9
20260507163029 67 44 2.0 8.0 0.00 0.00 0.00 86 1014.9
20260507162929 67 37 2.0 8.0 0.00 0.00 0.00 86 1014.9
20260507162829 67 21 2.0 6.0 0.00 0.00 0.00 86 1014.9
20260507162729 67 77 2.0 6.0 0.00 0.00 0.00 86 1014.9
20260507162629 67 21 2.0 6.0 0.00 0.00 0.00 86 1014.9
20260507162607 67 18 2.0 6.0 0.00 0.00 0.00 86 1014.9
20260507162529 67 304 2.0 6.0 0.00 0.00 0.00 85 1014.8
20260507162429 67 45 2.0 6.0 0.00 0.00 0.00 85 1014.9
20260507162326 67 333 2.0 4.0 0.00 0.00 0.00 85 1014.9
20260507162227 67 278 2.0 4.0 0.00 0.00 0.00 85 1014.8
20260507162127 67 316 2.0 4.0 0.00 0.00 0.00 86 1014.9
20260507162107 67 358 2.0 4.0 0.00 0.00 0.00 86 1014.9
20260507162027 67 141 2.0 4.0 0.00 0.00 0.00 85 1014.8
20260507161926 67 290 2.0 4.0 0.00 0.00 0.00 85 1014.9
20260507161827 67 258 2.0 4.0 0.00 0.00 0.00 85 1014.9
20260507161727 67 5 2.0 4.0 0.00 0.00 0.00 85 1014.9
20260507161627 67 311 2.0 4.0 0.00 0.00 0.00 85 1014.9
20260507161607 67 294 2.0 4.0 0.00 0.00 0.00 85 1014.9
20260507161523 67 318 2.0 5.0 0.00 0.00 0.00 86 1014.8
20260507161423 67 352 2.0 5.0 0.00 0.00 0.00 86 1014.8
20260507161323 67 20 2.0 5.0 0.00 0.00 0.00 86 1014.8
20260507161220 67 341 2.0 5.0 0.00 0.00 0.00 86 1014.8
20260507161120 67 20 2.0 7.0 0.00 0.00 0.00 86 1014.8
20260507161104 67 9 2.0 7.0 0.00 0.00 0.00 86 1014.8
20260507161020 67 310 2.0 7.0 0.00 0.00 0.00 86 1014.8
20260507160920 67 312 2.0 7.0 0.00 0.00 0.00 86 1014.8
20260507160817 67 300 2.0 7.0 0.00 0.00 0.00 86 1014.8
20260507160715 67 312 2.0 7.0 0.00 0.00 0.00 85 1014.8
20260507160612 67 352 2.0 7.0 0.00 0.00 0.00 85 1014.8
20260507160603 67 319 2.0 7.0 0.00 0.00 0.00 85 1014.7
20260507160512 67 344 2.0 7.0 0.00 0.00 0.00 85 1014.7
20260507160412 67 306 2.0 7.0 0.00 0.00 0.00 85 1014.7
20260507160311 67 310 2.0 7.0 0.00 0.00 0.00 85 1014.6
20260507160209 67 29 2.0 7.0 0.00 0.00 0.00 85 1014.6
20260507160108 67 36 2.0 5.0 0.00 0.00 0.00 86 1014.7
20260507160009 67 308 2.0 4.0 0.00 0.00 0.00 86 1014.6
20260507155905 67 322 2.0 4.0 0.00 0.00 0.00 86 1014.6
20260507155806 67 330 2.0 4.0 0.00 0.00 0.00 86 1014.6
20260507155704 67 9 2.0 5.0 0.00 0.00 0.00 86 1014.6
20260507155604 67 357 2.0 5.0 0.00 0.00 0.00 86 1014.7
20260507155451 67 15 2.0 5.0 0.00 0.00 0.00 86 1014.7
20260507155350 67 308 2.0 5.0 0.00 0.00 0.00 86 1014.7
20260507155321 67 14 2.0 5.0 0.00 0.00 0.00 86 1014.8
20260507155250 67 307 2.0 5.0 0.00 0.00 0.00 86 1014.7
20260507155209 67 168 2.0 5.0 0.00 0.00 0.00 86 1014.8
20260507155006 67 295 2.0 5.0 0.00 0.00 0.00 86 1014.8
20260507154906 67 284 2.0 5.0 0.00 0.00 0.00 86 1014.8
20260507154806 67 0 2.0 5.0 0.00 0.00 0.00 86 1014.8
20260507154704 67 320 2.0 6.0 0.00 0.00 0.00 86 1014.8
20260507154604 67 22 2.0 6.0 0.00 0.00 0.00 86 1014.9
20260507154420 67 335 2.0 6.0 0.00 0.00 0.00 86 1014.9
20260507154321 67 21 2.0 6.0 0.00 0.00 0.00 86 1014.9
20260507154217 67 9 3.0 6.0 0.00 0.00 0.00 86 1014.9
20260507154117 67 30 3.0 6.0 0.00 0.00 0.00 86 1014.9
20260507154018 67 8 3.0 6.0 0.00 0.00 0.00 86 1014.8
20260507153917 67 44 3.0 6.0 0.00 0.00 0.00 86 1014.8
20260507153817 67 323 3.0 6.0 0.00 0.00 0.00 86 1014.8
20260507153736 67 22 3.0 6.0 0.00 0.00 0.00 86 1014.8
20260507153651 67 50 3.0 6.0 0.00 0.00 0.00 86 1014.8
20260507153536 67 22 3.0 6.0 0.00 0.00 0.00 86 1014.8
20260507153522 67 42 3.0 6.0 0.00 0.00 0.00 86 1014.8
20260507153519 67 45 3.0 6.0 0.00 0.00 0.00 86 1014.8
20260507153429 67 37 3.0 6.0 0.00 0.00 0.00 86 1014.8
20260507153329 67 42 3.0 6.0 0.00 0.00 0.00 86 1014.8
20260507153218 67 39 3.0 6.0 0.00 0.00 0.00 86 1014.8
20260507153111 67 22 3.0 6.0 0.00 0.00 0.00 86 1014.8
20260507153012 67 40 2.0 6.0 0.00 0.00 0.00 86 1014.8
20260507153004 67 38 2.0 6.0 0.00 0.00 0.00 86 1014.8
20260507152906 67 33 2.0 6.0 0.00 0.00 0.00 86 1014.8
20260507152805 67 27 1.0 5.0 0.00 0.00 0.00 86 1014.9
20260507152704 67 19 1.0 3.0 0.00 0.00 0.00 86 1014.9
20260507152604 67 45 1.0 3.0 0.00 0.00 0.00 86 1014.9
20260507152504 67 338 2.0 3.0 0.00 0.00 0.00 86 1014.9
20260507152351 67 21 2.0 7.0 0.00 0.00 0.00 86 1014.9
20260507152251 67 306 2.0 7.0 0.00 0.00 0.00 86 1014.9
20260507152151 67 355 2.0 7.0 0.00 0.00 0.00 87 1014.8
20260507152051 67 302 2.0 7.0 0.00 0.00 0.00 87 1014.8
20260507151958 67 6 2.0 7.0 0.00 0.00 0.00 87 1014.7
20260507151941 67 4 2.0 7.0 0.00 0.00 0.00 87 1014.7
20260507151841 67 314 2.0 7.0 0.00 0.00 0.00 87 1014.7
20260507151741 67 280 2.0 7.0 0.00 0.00 0.00 87 1014.8
20260507151636 67 345 3.0 7.0 0.00 0.00 0.00 87 1014.8
20260507151536 67 294 3.0 7.0 0.00 0.00 0.00 87 1014.8
20260507151459 66 321 3.0 7.0 0.00 0.00 0.00 87 1014.7
20260507151436 66 4 3.0 7.0 0.00 0.00 0.00 87 1014.7
20260507151336 66 11 3.0 5.0 0.00 0.00 0.00 87 1014.8
20260507151236 66 312 3.0 5.0 0.00 0.00 0.00 87 1014.8
20260507151136 66 304 3.0 5.0 0.00 0.00 0.00 87 1014.8
20260507151036 66 240 3.0 5.0 0.00 0.00 0.00 87 1014.8
20260507151000 66 15 2.0 5.0 0.00 0.00 0.00 87 1014.8
20260507150936 66 324 2.0 5.0 0.00 0.00 0.00 87 1014.8
20260507150836 66 38 2.0 5.0 0.00 0.00 0.00 87 1014.8
20260507150736 66 1 2.0 5.0 0.00 0.00 0.00 87 1014.9
20260507150636 67 321 2.0 5.0 0.00 0.00 0.00 87 1014.9
20260507150536 67 353 2.0 5.0 0.00 0.00 0.00 87 1014.9
20260507150450 67 314 2.0 5.0 0.00 0.00 0.00 87 1014.9
20260507150436 67 9 2.0 5.0 0.00 0.00 0.00 87 1014.9
20260507150312 67 26 2.0 7.0 0.00 0.00 0.00 87 1014.9
20260507150213 67 320 3.0 9.0 0.00 0.00 0.00 87 1014.9
20260507150113 67 210 3.0 9.0 0.00 0.00 0.00 87 1014.8
20260507150006 67 43 2.0 9.0 0.00 0.00 0.00 87 1014.9
20260507145940 67 225 2.0 9.0 0.00 0.00 0.00 87 1014.9
20260507145904 67 322 2.0 9.0 0.00 0.00 0.00 87 1014.9
20260507145805 67 343 3.0 9.0 0.00 0.00 0.00 88 1014.8
20260507145642 67 305 3.0 9.0 0.00 0.00 0.00 88 1014.8
20260507145542 67 327 3.0 9.0 0.00 0.00 0.00 88 1014.8
20260507145443 67 37 3.0 9.0 0.00 0.00 0.00 87 1014.7
20260507145331 67 49 2.0 9.0 0.00 0.00 0.00 87 1014.7
20260507145231 67 15 2.0 9.0 0.00 0.00 0.00 88 1014.6
20260507145131 67 46 2.0 6.0 0.00 0.00 0.00 88 1014.6
20260507145030 67 88 2.0 6.0 0.00 0.00 0.00 87 1014.6
20260507144935 67 321 2.0 6.0 0.00 0.00 0.00 87 1014.5
20260507144924 67 49 2.0 6.0 0.00 0.00 0.00 87 1014.5
20260507144822 67 312 2.0 5.0 0.00 0.00 0.00 87 1014.5
20260507144721 67 9 2.0 5.0 0.00 0.00 0.00 87 1014.6
20260507144606 67 336 2.0 5.0 0.00 0.00 0.00 87 1014.6
20260507144451 67 270 2.0 5.0 0.00 0.00 0.00 87 1014.7
20260507144435 67 48 2.0 5.0 0.00 0.00 0.00 87 1014.7
20260507144348 67 288 2.0 7.0 0.00 0.00 0.00 87 1014.7
20260507144243 67 9 2.0 7.0 0.00 0.00 0.00 87 1014.7
20260507144143 67 59 2.0 7.0 0.00 0.00 0.00 87 1014.7
20260507144042 67 13 2.0 7.0 0.00 0.00 0.00 87 1014.7
20260507143929 67 34 2.0 7.0 0.00 0.00 0.00 87 1014.7
20260507143842 67 304 2.0 7.0 0.00 0.00 0.00 87 1014.7
20260507143742 67 28 2.0 7.0 0.00 0.00 0.00 87 1014.7
20260507143641 67 85 2.0 7.0 0.00 0.00 0.00 87 1014.7
20260507143542 67 293 3.0 8.0 0.00 0.00 0.00 86 1014.6
20260507143429 67 2 3.0 8.0 0.00 0.00 0.00 86 1014.6
20260507143337 67 14 3.0 8.0 0.00 0.00 0.00 87 1014.5
20260507143237 67 313 3.0 8.0 0.00 0.00 0.00 87 1014.3
20260507143131 67 23 4.0 8.0 0.00 0.00 0.00 87 1014.3
20260507143001 67 14 4.0 10.0 0.00 0.00 0.00 87 1014.3
20260507142930 67 316 4.0 10.0 0.00 0.00 0.00 87 1014.3
20260507142837 66 28 4.0 10.0 0.00 0.00 0.00 88 1014.1
20260507142737 66 58 4.0 10.0 0.00 0.00 0.00 88 1014.1
20260507142630 66 21 4.0 10.0 0.00 0.00 0.00 88 1014.1
20260507142530 66 25 4.0 10.0 0.00 0.00 0.00 88 1014.1
20260507142431 66 39 4.0 10.0 0.00 0.00 0.00 88 1014.1
20260507142324 66 313 4.0 10.0 0.00 0.00 0.00 88 1014.1
20260507142206 66 17 4.0 10.0 0.00 0.00 0.00 88 1014.1
20260507142054 66 56 4.0 8.0 0.00 0.00 0.00 88 1014.1
20260507141925 66 52 3.0 8.0 0.00 0.00 0.00 88 1014.3
20260507141905 66 60 3.0 8.0 0.00 0.00 0.00 88 1014.3
20260507141819 66 20 3.0 8.0 0.00 0.00 0.00 88 1014.3
20260507141713 66 44 3.0 8.0 0.00 0.00 0.00 88 1014.3
20260507141601 66 20 3.0 8.0 0.00 0.00 0.00 88 1014.4
20260507141501 66 41 3.0 8.0 0.00 0.00 0.00 88 1014.4
20260507141401 66 54 2.0 8.0 0.00 0.00 0.00 88 1014.4
20260507141353 66 56 2.0 8.0 0.00 0.00 0.00 88 1014.4
20260507141300 66 339 2.0 6.0 0.00 0.00 0.00 88 1014.4
20260507141155 66 66 2.0 6.0 0.00 0.00 0.00 88 1014.4
20260507141055 66 314 2.0 6.0 0.00 0.00 0.00 88 1014.4
20260507140943 66 47 3.0 6.0 0.00 0.00 0.00 88 1014.3
20260507140854 66 355 3.0 6.0 0.00 0.00 0.00 88 1014.3
20260507140843 66 15 3.0 6.0 0.00 0.00 0.00 88 1014.3
20260507140738 66 28 3.0 6.0 0.00 0.00 0.00 89 1014.3
20260507140637 66 348 3.0 6.0 0.00 0.00 0.00 89 1014.3
20260507140530 65 23 3.0 6.0 0.00 0.00 0.00 89 1014.2
20260507140431 65 12 3.0 6.0 0.00 0.00 0.00 89 1014.2
20260507140347 65 17 3.0 6.0 0.00 0.00 0.00 89 1014.2
20260507140325 65 28 3.0 6.0 0.00 0.00 0.00 89 1014.2
20260507140225 65 38 3.0 7.0 0.00 0.00 0.00 89 1014.3
20260507140118 65 33 3.0 7.0 0.00 0.00 0.00 89 1014.3
20260507140013 66 44 2.0 7.0 0.00 0.00 0.00 89 1014.4
20260507135914 66 54 2.0 7.0 0.00 0.00 0.00 89 1014.4
20260507135848 66 28 2.0 7.0 0.00 0.00 0.00 89 1014.4
20260507135813 66 18 2.0 7.0 0.00 0.00 0.00 89 1014.4
20260507135713 66 15 2.0 7.0 0.00 0.00 0.00 89 1014.4
20260507135607 66 291 2.0 7.0 0.00 0.00 0.00 89 1014.4
20260507135506 66 26 2.0 7.0 0.00 0.00 0.00 89 1014.3
20260507135408 66 11 3.0 7.0 0.00 0.00 0.00 89 1014.3
20260507135341 66 294 3.0 7.0 0.00 0.00 0.00 89 1014.3
20260507135307 66 8 3.0 7.0 0.00 0.00 0.00 89 1014.3
20260507135205 66 359 3.0 5.0 0.00 0.00 0.00 89 1014.3
20260507135106 66 38 3.0 5.0 0.00 0.00 0.00 89 1014.3
20260507135005 66 1 3.0 5.0 0.00 0.00 0.00 89 1014.4
20260507134906 66 214 2.0 5.0 0.00 0.00 0.00 89 1014.4
20260507134835 66 193 2.0 5.0 0.00 0.00 0.00 89 1014.4
20260507134806 66 332 2.0 4.0 0.00 0.00 0.00 89 1014.4
20260507134706 66 28 2.0 4.0 0.00 0.00 0.00 89 1014.5
20260507134606 66 345 2.0 4.0 0.00 0.00 0.00 89 1014.5
20260507134555 66 42 2.0 4.0 0.00 0.00 0.00 88 1014.5
20260507134452 66 9 2.0 4.0 0.00 0.00 0.00 88 1014.5
20260507134441 66 359 2.0 4.0 0.00 0.00 0.00 88 1014.5
20260507134252 66 3 2.0 4.0 0.00 0.00 0.00 88 1014.5
20260507134137 66 350 2.0 4.0 0.00 0.00 0.00 88 1014.4
20260507134037 66 250 2.0 4.0 0.00 0.00 0.00 89 1014.4
20260507133937 66 298 2.0 4.0 0.00 0.00 0.00 89 1014.4
20260507133837 66 298 2.0 4.0 0.00 0.00 0.00 88 1014.5
20260507133722 66 324 2.0 4.0 0.00 0.00 0.00 88 1014.4
20260507133622 66 5 2.0 4.0 0.00 0.00 0.00 89 1014.4
20260507133507 66 317 2.0 4.0 0.00 0.00 0.00 89 1014.4
20260507133406 66 306 2.0 4.0 0.00 0.00 0.00 89 1014.4
20260507133336 66 306 2.0 4.0 0.00 0.00 0.00 89 1014.4
20260507133252 66 329 2.0 4.0 0.00 0.00 0.00 88 1014.4
20260507133152 66 11 2.0 4.0 0.00 0.00 0.00 88 1014.4
20260507133052 67 20 2.0 4.0 0.00 0.00 0.00 89 1014.4
20260507132952 67 258 2.0 4.0 0.00 0.00 0.00 89 1014.4
20260507132838 67 317 2.0 4.0 0.00 0.00 0.00 89 1014.4
20260507132806 67 301 2.0 4.0 0.00 0.00 0.00 89 1014.4
20260507132737 67 20 2.0 4.0 0.00 0.00 0.00 88 1014.4
20260507132637 67 321 2.0 4.0 0.00 0.00 0.00 88 1014.4
20260507132532 67 291 2.0 4.0 0.00 0.00 0.00 88 1014.4
20260507132522 67 348 2.0 4.0 0.00 0.00 0.00 88 1014.4
20260507132422 67 301 2.0 4.0 0.00 0.00 0.00 89 1014.4
20260507132412 67 359 2.0 4.0 0.00 0.00 0.00 88 1014.4
20260507132222 67 311 2.0 4.0 0.00 0.00 0.00 88 1014.4
20260507132122 67 359 2.0 4.0 0.00 0.00 0.00 88 1014.4
20260507132022 67 351 2.0 4.0 0.00 0.00 0.00 88 1014.4
20260507131922 67 2 1.0 3.0 0.00 0.00 0.00 88 1014.4
20260507131823 67 356 1.0 3.0 0.00 0.00 0.00 89 1014.4
20260507131806 67 346 1.0 3.0 0.00 0.00 0.00 89 1014.4
20260507131722 67 321 1.0 3.0 0.00 0.00 0.00 89 1014.4
20260507131606 67 326 1.0 3.0 0.00 0.00 0.00 89 1014.4
20260507131506 67 280 1.0 3.0 0.00 0.00 0.00 89 1014.4
20260507131406 67 324 1.0 3.0 0.00 0.00 0.00 89 1014.4
20260507131305 67 30 1.0 3.0 0.00 0.00 0.00 89 1014.5
20260507131153 67 305 1.0 3.0 0.00 0.00 0.00 89 1014.5
20260507131052 67 317 1.0 2.0 0.00 0.00 0.00 89 1014.5
20260507130938 67 38 1.0 2.0 0.00 0.00 0.00 89 1014.5
20260507130823 67 292 1.0 2.0 0.00 0.00 0.00 89 1014.4
20260507130805 67 123 1.0 2.0 0.00 0.00 0.00 89 1014.5
20260507130723 67 29 1.0 2.0 0.00 0.00 0.00 89 1014.5
20260507130608 67 291 1.0 2.0 0.00 0.00 0.00 89 1014.5
20260507130506 67 304 1.0 2.0 0.00 0.00 0.00 89 1014.5
20260507130338 67 279 1.0 2.0 0.00 0.00 0.00 89 1014.5
20260507130306 67 347 1.0 2.0 0.00 0.00 0.00 89 1014.5
20260507130238 67 320 1.0 2.0 0.00 0.00 0.00 89 1014.5
20260507130123 67 271 1.0 3.0 0.00 0.00 0.00 89 1014.5
20260507130008 67 9 1.0 5.0 0.00 0.00 0.00 89 1014.5
20260507125906 68 17 2.0 5.0 0.00 0.00 0.00 89 1014.4
20260507125807 68 5 2.0 5.0 0.00 0.00 0.00 89 1014.3
20260507125652 68 15 2.0 5.0 0.00 0.00 0.00 89 1014.3
20260507125552 68 250 2.0 5.0 0.00 0.00 0.00 89 1014.2
20260507125437 68 231 2.0 5.0 0.00 0.00 0.00 89 1014.1
20260507125338 68 321 2.0 5.0 0.00 0.00 0.00 89 1014.1
20260507125238 68 299 2.0 5.0 0.00 0.00 0.00 89 1014.1
20260507125138 68 338 2.0 5.0 0.00 0.00 0.00 89 1014.0
20260507125038 68 308 2.0 5.0 0.00 0.00 0.00 89 1014.0
20260507124938 68 310 2.0 4.0 0.00 0.00 0.00 89 1014.0
20260507124838 68 201 2.0 3.0 0.00 0.00 0.00 89 1014.1
20260507124738 68 1 2.0 3.0 0.00 0.00 0.00 89 1014.1
20260507124706 68 352 2.0 3.0 0.00 0.00 0.00 89 1014.1
20260507124638 68 283 2.0 3.0 0.00 0.00 0.00 89 1014.1
20260507124538 68 225 2.0 4.0 0.00 0.00 0.00 89 1014.1
20260507124430 68 353 1.0 4.0 0.00 0.00 0.00 89 1014.0
20260507124423 68 45 2.0 4.0 0.00 0.00 0.00 89 1014.0
20260507124318 68 356 1.0 4.0 0.00 0.00 0.00 89 1014.0
20260507124312 68 353 1.0 4.0 0.00 0.00 0.00 89 1014.0
20260507124106 68 331 1.0 4.0 0.00 0.00 0.00 89 1014.0
20260507124006 68 322 1.0 4.0 0.00 0.00 0.00 89 1013.9
20260507123838 68 4 1.0 4.0 0.00 0.00 0.00 89 1013.9
20260507123739 68 111 1.0 4.0 0.00 0.00 0.00 89 1013.9
20260507123705 68 292 1.0 4.0 0.00 0.00 0.00 89 1014.0
20260507123638 68 336 1.0 4.0 0.00 0.00 0.00 89 1014.0
20260507123538 68 19 1.0 4.0 0.00 0.00 0.00 89 1013.9
20260507123438 68 352 1.0 3.0 0.00 0.00 0.00 89 1013.9
20260507123338 68 328 1.0 3.0 0.00 0.00 0.00 90 1013.9
20260507123238 68 274 1.0 3.0 0.00 0.00 0.00 90 1013.9
20260507123205 68 308 1.0 3.0 0.00 0.00 0.00 90 1013.8
20260507123137 68 308 1.0 3.0 0.00 0.00 0.00 90 1013.8
20260507123023 68 317 1.0 3.0 0.00 0.00 0.00 90 1013.7
20260507122853 68 23 2.0 3.0 0.00 0.00 0.00 89 1013.7
20260507122753 68 262 2.0 5.0 0.00 0.00 0.00 89 1013.6
20260507122653 68 92 2.0 5.0 0.00 0.00 0.00 89 1013.5
20260507122523 68 7 2.0 5.0 0.00 0.00 0.00 89 1013.5
20260507122353 68 348 2.0 5.0 0.00 0.00 0.00 90 1013.5
20260507122343 68 87 2.0 5.0 0.00 0.00 0.00 90 1013.4
20260507122253 68 5 2.0 5.0 0.00 0.00 0.00 90 1013.4
20260507122228 68 17 2.0 5.0 0.00 0.00 0.00 90 1013.4
20260507122054 68 22 2.0 5.0 0.00 0.00 0.00 90 1013.4
20260507121938 68 8 2.0 5.0 0.00 0.00 0.00 90 1013.3
20260507121839 68 21 2.0 5.0 0.00 0.00 0.00 90 1013.3
20260507121709 68 29 2.0 3.0 0.00 0.00 0.00 90 1013.4
20260507121623 68 8 2.0 3.0 0.00 0.00 0.00 90 1013.3
20260507121614 68 358 2.0 4.0 0.00 0.00 0.00 90 1013.2
20260507121609 68 12 2.0 3.0 0.00 0.00 0.00 90 1013.3
20260507121452 68 44 2.0 4.0 0.00 0.00 0.00 90 1013.3
20260507121338 68 33 2.0 4.0 0.00 0.00 0.00 90 1013.3
20260507121238 68 27 2.0 4.0 0.00 0.00 0.00 90 1013.3
20260507121227 68 358 2.0 4.0 0.00 0.00 0.00 90 1013.2
20260507121023 68 7 2.0 4.0 0.00 0.00 0.00 90 1013.2
20260507120923 68 324 2.0 4.0 0.00 0.00 0.00 90 1013.2
20260507120809 68 142 2.0 4.0 0.00 0.00 0.00 90 1013.2
20260507120654 68 329 2.0 4.0 0.00 0.00 0.00 90 1013.2
20260507120622 68 324 2.0 4.0 0.00 0.00 0.00 90 1013.2
20260507120538 68 46 2.0 4.0 0.00 0.00 0.00 90 1013.2
20260507120423 68 24 2.0 3.0 0.00 0.00 0.00 90 1013.2
20260507120330 68 21 2.0 3.0 0.00 0.00 0.00 90 1013.1
20260507120323 68 289 1.0 3.0 0.00 0.00 0.00 90 1013.2
20260507120224 68 319 2.0 3.0 0.00 0.00 0.00 90 1013.2
20260507120213 68 38 2.0 3.0 0.00 0.00 0.00 90 1013.1
20260507120024 68 329 2.0 3.0 0.00 0.00 0.00 90 1013.1
20260507115924 68 4 2.0 3.0 0.00 0.00 0.00 91 1013.1
20260507115823 68 346 2.0 3.0 0.00 0.00 0.00 91 1013.1
20260507115707 68 358 2.0 3.0 0.00 0.00 0.00 90 1013.1
20260507115612 68 334 2.0 3.0 0.00 0.00 0.00 90 1013.1
20260507115607 68 301 2.0 3.0 0.00 0.00 0.00 90 1013.1
20260507115454 68 43 1.0 3.0 0.00 0.00 0.00 91 1013.1
20260507115354 68 12 1.0 3.0 0.00 0.00 0.00 91 1013.1
20260507115330 68 11 1.0 3.0 0.00 0.00 0.00 91 1013.1
20260507115253 68 301 1.0 3.0 0.00 0.00 0.00 91 1013.1
20260507115213 68 2 1.0 3.0 0.00 0.00 0.00 91 1013.1
20260507115038 68 316 2.0 4.0 0.00 0.00 0.00 91 1013.1
20260507114939 68 343 2.0 4.0 0.00 0.00 0.00 91 1013.1
20260507114809 68 11 2.0 4.0 0.00 0.00 0.00 91 1013.1
20260507114709 68 4 2.0 4.0 0.00 0.00 0.00 91 1013.0
20260507114608 68 299 1.0 4.0 0.00 0.00 0.00 91 1013.0
20260507114527 68 51 1.0 4.0 0.00 0.01 0.00 91 1013.0
20260507114453 68 51 1.0 4.0 0.00 0.00 0.00 91 1013.0
20260507114407 68 21 1.0 4.0 0.00 0.00 0.00 91 1013.0
20260507114209 68 352 1.0 4.0 0.00 0.00 0.00 91 1013.0
20260507114143 68 41 1.0 4.0 0.00 0.01 0.00 91 1013.0
20260507114008 68 58 1.0 2.0 0.00 0.01 0.00 91 1013.0
20260507113908 68 8 1.0 2.0 0.00 0.01 0.00 91 1012.9
20260507113807 68 331 1.0 3.0 0.00 0.01 0.00 91 1012.9
20260507113707 68 20 1.0 3.0 0.00 0.01 0.00 91 1012.8
20260507113608 68 89 1.0 3.0 0.00 0.01 0.00 91 1012.8
20260507113524 68 24 1.0 3.0 0.00 0.01 0.00 91 1012.8
20260507113508 68 62 1.0 3.0 0.00 0.01 0.00 91 1012.8
20260507113408 68 116 1.0 3.0 0.00 0.01 0.00 91 1012.8
20260507113308 68 356 1.0 3.0 0.00 0.01 0.00 91 1012.7
20260507113207 68 15 1.0 3.0 0.00 0.01 0.00 91 1012.7
20260507113039 68 300 1.0 3.0 0.00 0.01 0.00 91 1012.7
20260507113008 68 47 1.0 3.0 0.00 0.01 0.00 91 1012.7
20260507112939 68 2 1.0 3.0 0.00 0.01 0.00 91 1012.7
20260507112824 68 271 1.0 3.0 0.00 0.01 0.00 91 1012.7
20260507112653 68 22 1.0 3.0 0.00 0.01 0.00 91 1012.7
20260507112524 68 28 1.0 3.0 0.00 0.01 0.00 91 1012.7
20260507112508 68 24 1.0 3.0 0.00 0.01 0.00 91 1012.7
20260507112424 68 17 1.0 3.0 0.00 0.01 0.00 91 1012.7
20260507112324 68 0 1.0 3.0 0.00 0.01 0.00 90 1012.7
20260507112138 68 288 1.0 3.0 0.00 0.01 0.00 90 1012.7
20260507112039 68 13 1.0 3.0 0.00 0.01 0.00 90 1012.7
20260507112008 68 41 1.0 3.0 0.00 0.01 0.00 90 1012.7
20260507111939 68 41 1.0 3.0 0.00 0.01 0.00 90 1012.7
20260507111839 68 303 1.0 2.0 0.00 0.01 0.00 90 1012.7
20260507111741 68 323 1.0 2.0 0.00 0.01 0.00 90 1012.7
20260507111736 68 265 1.0 2.0 0.00 0.01 0.00 90 1012.7
20260507111639 68 297 1.0 2.0 0.00 0.01 0.00 90 1012.7
20260507111614 68 0 1.0 2.0 0.00 0.01 0.00 90 1012.7
20260507111439 68 327 1.0 2.0 0.00 0.01 0.00 90 1012.7
20260507111339 68 133 1.0 2.0 0.00 0.01 0.00 90 1012.7
20260507111239 68 29 1.0 2.0 0.00 0.01 0.00 90 1012.7
20260507111229 68 345 1.0 2.0 0.00 0.01 0.00 90 1012.7
20260507111119 68 350 1.0 2.0 0.00 0.01 0.00 90 1012.7
20260507111113 68 345 1.0 2.0 0.00 0.01 0.00 90 1012.7
20260507110908 68 0 1.0 2.0 0.00 0.01 0.00 90 1012.7
20260507110753 69 0 1.0 2.0 0.00 0.01 0.00 90 1012.7
20260507110624 69 304 1.0 2.0 0.00 0.01 0.00 90 1012.7
20260507110509 69 199 1.0 2.0 0.00 0.01 0.00 90 1012.6
20260507110408 69 2 1.0 2.0 0.00 0.01 0.00 90 1012.6
20260507110210 69 327 1.0 2.0 0.00 0.01 0.00 90 1012.6
20260507110109 69 20 1.0 2.0 0.00 0.01 0.00 90 1012.7
20260507110009 69 337 1.0 2.0 0.00 0.01 0.00 90 1012.7
20260507105908 69 200 1.0 2.0 0.00 0.01 0.00 90 1012.6
20260507105754 69 23 1.0 2.0 0.00 0.01 0.00 90 1012.6
20260507105654 69 302 1.0 2.0 0.00 0.01 0.00 90 1012.6
20260507105509 69 311 1.0 2.0 0.00 0.01 0.00 90 1012.6
20260507105354 69 14 1.0 2.0 0.00 0.01 0.00 90 1012.6
20260507105254 69 357 2.0 3.0 0.00 0.01 0.00 90 1012.6
20260507105140 69 311 1.0 3.0 0.00 0.01 0.00 90 1012.6
20260507105040 69 19 1.0 3.0 0.00 0.01 0.00 90 1012.6
20260507105007 69 54 1.0 3.0 0.00 0.01 0.00 90 1012.6
20260507104924 69 54 1.0 3.0 0.00 0.01 0.00 90 1012.6
20260507104809 69 3 1.0 4.0 0.00 0.01 0.00 90 1012.6
20260507104709 69 359 1.0 4.0 0.00 0.01 0.00 90 1012.5
20260507104510 69 314 1.0 4.0 0.00 0.01 0.00 90 1012.5
20260507104423 69 329 1.0 4.0 0.00 0.01 0.00 90 1012.5
20260507104348 69 356 1.0 4.0 0.00 0.01 0.00 90 1012.5
20260507104248 69 8 1.0 4.0 0.00 0.01 0.00 89 1012.5
20260507104148 69 318 1.0 4.0 0.00 0.01 0.00 89 1012.5
20260507104047 69 19 1.0 4.0 0.00 0.01 0.00 89 1012.5
20260507103948 69 346 1.0 4.0 0.00 0.01 0.00 89 1012.5
20260507103924 69 329 1.0 4.0 0.00 0.01 0.00 89 1012.5
20260507103848 69 60 1.0 4.0 0.00 0.01 0.00 89 1012.5
20260507103748 69 307 1.0 4.0 0.00 0.01 0.00 89 1012.5
20260507103645 69 28 2.0 5.0 0.00 0.01 0.00 89 1012.5
20260507103545 69 345 2.0 5.0 0.00 0.01 0.00 89 1012.4
20260507103445 69 7 2.0 5.0 0.00 0.01 0.00 89 1012.4
20260507103412 69 358 2.0 5.0 0.00 0.01 0.00 89 1012.4
20260507103345 69 0 2.0 5.0 0.00 0.01 0.00 89 1012.4
20260507103239 69 342 2.0 5.0 0.00 0.01 0.00 89 1012.4
20260507103139 69 309 2.0 5.0 0.00 0.01 0.00 89 1012.4
20260507103034 69 316 2.0 5.0 0.00 0.01 0.00 89 1012.4
20260507102935 69 291 2.0 5.0 0.00 0.01 0.00 89 1012.4
20260507102912 69 22 1.0 5.0 0.00 0.01 0.00 89 1012.4
20260507102835 69 276 2.0 5.0 0.00 0.01 0.00 89 1012.4
20260507102734 69 344 2.0 5.0 0.00 0.01 0.00 89 1012.4
20260507102642 69 341 2.0 6.0 0.00 0.01 0.00 89 1012.4
20260507102635 69 343 2.0 6.0 0.00 0.01 0.00 89 1012.4
20260507102532 69 340 2.0 6.0 0.00 0.01 0.00 89 1012.4
20260507102518 69 306 2.0 6.0 0.00 0.01 0.00 89 1012.4
20260507102332 69 284 2.0 6.0 0.00 0.01 0.00 89 1012.4
20260507102232 69 358 2.0 6.0 0.00 0.01 0.00 89 1012.3
20260507102131 69 283 2.0 6.0 0.00 0.01 0.00 89 1012.3
20260507102031 69 5 2.0 6.0 0.00 0.01 0.00 89 1012.3
20260507101932 69 317 2.0 6.0 0.00 0.01 0.00 89 1012.3
20260507101912 69 27 2.0 6.0 0.00 0.01 0.00 89 1012.3
20260507101828 69 10 2.0 6.0 0.00 0.01 0.00 89 1012.3
20260507101729 69 23 2.0 6.0 0.00 0.01 0.00 89 1012.2
20260507101626 69 35 2.0 5.0 0.00 0.01 0.00 89 1012.2
20260507101526 69 338 2.0 5.0 0.00 0.01 0.00 89 1012.2
20260507101423 69 3 2.0 5.0 0.00 0.01 0.00 89 1012.2
20260507101410 69 349 2.0 5.0 0.00 0.01 0.00 89 1012.2
20260507101320 69 321 2.0 5.0 0.00 0.01 0.00 89 1012.2
20260507101217 69 353 2.0 5.0 0.00 0.01 0.00 89 1012.2
20260507101115 70 349 2.0 8.0 0.00 0.01 0.00 89 1012.2
20260507101111 69 40 2.0 6.0 0.00 0.01 0.00 89 1012.2
20260507101011 69 310 2.0 7.0 0.00 0.01 0.00 89 1012.2
20260507100958 70 19 2.0 7.0 0.00 0.01 0.00 89 1012.2
20260507100811 70 18 2.0 7.0 0.00 0.01 0.00 89 1012.2
20260507100736 70 323 2.0 7.0 0.00 0.01 0.00 89 1012.3
20260507100608 70 43 2.0 7.0 0.00 0.01 0.00 89 1012.2
20260507100513 70 40 2.0 7.0 0.00 0.01 0.00 89 1012.2
20260507100359 70 349 2.0 8.0 0.00 0.01 0.00 89 1012.2
20260507100253 70 49 2.0 8.0 0.00 0.01 0.00 89 1012.1
20260507100150 70 20 2.0 8.0 0.00 0.01 0.00 89 1012.1
20260507100050 70 44 2.0 8.0 0.00 0.01 0.00 89 1012.1
20260507095950 70 316 2.0 8.0 0.00 0.01 0.00 89 1012.1
20260507095906 70 328 2.0 8.0 0.00 0.01 0.00 89 1012.1
20260507095851 70 350 2.0 8.0 0.00 0.01 0.00 89 1012.1
20260507095750 70 13 2.0 8.0 0.00 0.01 0.00 89 1012.1
20260507095647 70 355 2.0 8.0 0.00 0.01 0.00 89 1012.0
20260507095547 70 7 2.0 8.0 0.00 0.01 0.00 89 1012.0
20260507095447 70 356 2.0 8.0 0.00 0.01 0.00 89 1012.0
20260507095407 70 31 2.0 8.0 0.00 0.01 0.00 89 1012.0
20260507095347 70 19 2.0 8.0 0.00 0.01 0.00 89 1012.0
20260507095247 70 345 2.0 6.0 0.00 0.01 0.00 89 1012.0
20260507095147 70 268 2.0 6.0 0.00 0.01 0.00 89 1012.0
20260507095047 70 23 2.0 6.0 0.00 0.01 0.00 89 1011.9
20260507094947 70 34 2.0 6.0 0.00 0.01 0.00 89 1011.9
20260507094907 70 27 2.0 6.0 0.00 0.01 0.00 89 1011.9
20260507094847 70 31 2.0 5.0 0.00 0.01 0.00 89 1011.9
20260507094744 70 14 1.0 5.0 0.00 0.01 0.00 89 1011.9
20260507094638 70 335 1.0 5.0 0.00 0.01 0.00 89 1011.9
20260507094538 70 356 1.0 5.0 0.00 0.01 0.00 89 1012.0
20260507094438 70 318 1.0 5.0 0.00 0.01 0.00 89 1012.0
20260507094407 70 294 1.0 5.0 0.00 0.01 0.00 89 1011.9
20260507094338 70 9 1.0 5.0 0.00 0.01 0.00 89 1011.9
20260507094235 70 116 1.0 5.0 0.00 0.01 0.00 89 1011.9
20260507094136 70 305 1.0 4.0 0.00 0.01 0.00 89 1011.9
20260507094031 70 0 1.0 4.0 0.00 0.01 0.00 89 1012.0
20260507093932 70 212 1.0 4.0 0.00 0.01 0.00 89 1012.0
20260507093907 70 282 1.0 4.0 0.00 0.01 0.00 89 1012.0
20260507093832 70 301 1.0 4.0 0.00 0.01 0.00 89 1012.0
20260507093732 70 63 1.0 4.0 0.00 0.01 0.00 89 1012.0
20260507093632 70 320 1.0 5.0 0.00 0.01 0.00 89 1012.0
20260507093529 70 274 1.0 5.0 0.00 0.01 0.00 89 1012.0
20260507093429 70 316 1.0 5.0 0.00 0.01 0.00 89 1012.0
20260507093408 70 314 1.0 5.0 0.00 0.01 0.00 89 1012.0
20260507093330 70 319 1.0 5.0 0.00 0.01 0.00 89 1012.0
20260507093229 70 61 1.0 5.0 0.00 0.01 0.00 89 1011.9
20260507093129 70 346 1.0 5.0 0.00 0.01 0.00 89 1011.9
20260507093121 70 312 1.0 5.0 0.00 0.01 0.00 89 1011.9
20260507093029 70 356 1.0 5.0 0.00 0.01 0.00 89 1011.9
20260507093007 70 351 1.0 5.0 0.00 0.01 0.00 89 1011.9
20260507092829 70 356 1.0 5.0 0.00 0.01 0.00 89 1011.9
20260507092729 70 0 1.0 6.0 0.00 0.01 0.00 89 1011.9
20260507092630 70 327 1.0 6.0 0.00 0.01 0.00 88 1011.9
20260507092530 70 333 1.0 6.0 0.00 0.01 0.00 88 1011.9
20260507092430 70 293 1.0 6.0 0.00 0.01 0.00 88 1011.9
20260507092401 70 277 1.0 6.0 0.00 0.01 0.00 88 1011.9
20260507092351 70 275 2.0 6.0 0.00 0.01 0.00 88 1012.0
20260507092326 70 29 1.0 6.0 0.00 0.01 0.00 88 1011.9
20260507092238 70 357 2.0 6.0 0.00 0.01 0.00 88 1011.9
20260507092126 70 10 2.0 6.0 0.00 0.01 0.00 88 1012.0
20260507092026 70 333 2.0 6.0 0.00 0.01 0.00 88 1012.0
20260507092007 70 319 2.0 6.0 0.00 0.01 0.00 88 1012.0
20260507091826 70 324 2.0 6.0 0.00 0.01 0.00 88 1012.0
20260507091726 70 301 2.0 4.0 0.00 0.01 0.00 88 1012.0
20260507091626 70 33 2.0 4.0 0.00 0.01 0.00 88 1012.0
20260507091523 70 223 2.0 4.0 0.00 0.01 0.00 88 1012.0
20260507091420 70 23 2.0 4.0 0.00 0.01 0.00 88 1012.0
20260507091401 70 331 2.0 4.0 0.00 0.01 0.00 88 1012.0
20260507091319 70 301 2.0 4.0 0.00 0.01 0.00 88 1012.0
20260507091220 70 250 2.0 4.0 0.00 0.01 0.00 88 1012.0
20260507091124 70 345 1.0 4.0 0.00 0.01 0.00 88 1012.0
20260507091118 70 325 2.0 4.0 0.00 0.01 0.00 88 1012.0
20260507091018 70 295 2.0 4.0 0.00 0.01 0.00 88 1012.0
20260507091004 70 308 2.0 4.0 0.00 0.01 0.00 88 1012.0
20260507090818 70 29 1.0 4.0 0.00 0.01 0.00 88 1012.0
20260507090715 70 330 1.0 4.0 0.00 0.01 0.00 88 1012.0
20260507090612 70 245 1.0 4.0 0.00 0.01 0.00 88 1011.9
20260507090511 70 9 1.0 4.0 0.00 0.01 0.00 88 1011.9
20260507090404 70 336 1.0 4.0 0.00 0.01 0.00 88 1011.9
20260507090358 70 349 1.0 4.0 0.00 0.01 0.00 88 1011.9
20260507090303 70 285 1.0 4.0 0.00 0.01 0.00 88 1011.9
20260507090203 70 315 1.0 3.0 0.00 0.01 0.00 89 1011.9
20260507090000 70 353 1.0 3.0 0.00 0.01 0.00 88 1011.9
20260507085855 70 33 1.0 3.0 0.00 0.01 0.00 88 1011.9
20260507085759 70 286 1.0 4.0 0.00 0.01 0.00 88 1011.9
20260507085659 70 41 1.0 4.0 0.00 0.01 0.00 88 1011.9
20260507085556 70 298 1.0 4.0 0.00 0.01 0.00 88 1011.8
20260507085453 70 342 1.0 4.0 0.00 0.01 0.00 88 1011.8
20260507085347 70 342 1.0 4.0 0.00 0.01 0.00 88 1011.8
20260507085306 70 345 1.0 4.0 0.00 0.01 0.00 88 1011.7
20260507085151 70 261 1.0 4.0 0.00 0.01 0.00 88 1011.6
20260507085050 70 19 1.0 4.0 0.00 0.01 0.00 88 1011.6
20260507084948 70 268 1.0 4.0 0.00 0.01 0.00 88 1011.6
20260507084848 70 24 1.0 4.0 0.00 0.01 0.00 88 1011.6
20260507084742 70 253 1.0 4.0 0.00 0.01 0.00 88 1011.5
20260507084642 70 315 1.0 4.0 0.00 0.01 0.00 88 1011.5
20260507084542 70 298 1.0 4.0 0.00 0.01 0.00 88 1011.6
20260507084441 70 43 1.0 4.0 0.00 0.01 0.00 88 1011.6
20260507084342 70 258 1.0 6.0 0.00 0.01 0.00 88 1011.6
20260507084242 70 310 2.0 6.0 0.00 0.01 0.00 88 1011.6
20260507084142 70 120 2.0 6.0 0.00 0.01 0.00 88 1011.6
20260507084041 70 269 2.0 6.0 0.00 0.01 0.00 88 1011.6
20260507083942 70 7 2.0 6.0 0.00 0.01 0.00 88 1011.6
20260507083842 70 341 2.0 6.0 0.00 0.01 0.00 88 1011.5
20260507083742 70 296 2.0 6.0 0.00 0.01 0.00 88 1011.5
20260507083642 70 322 2.0 6.0 0.00 0.01 0.00 88 1011.5
20260507083542 70 351 2.0 6.0 0.00 0.01 0.00 88 1011.5
20260507083442 70 0 2.0 6.0 0.00 0.01 0.00 88 1011.5
20260507083343 70 303 2.0 6.0 0.00 0.01 0.00 88 1011.5
20260507083242 70 14 1.0 6.0 0.00 0.01 0.00 88 1011.5
20260507083142 70 327 1.0 6.0 0.00 0.01 0.00 88 1011.5
20260507083042 70 2 1.0 6.0 0.00 0.01 0.00 88 1011.5
20260507082943 70 39 2.0 6.0 0.00 0.01 0.00 88 1011.5
20260507082842 70 342 1.0 6.0 0.00 0.01 0.00 88 1011.5
20260507082742 70 354 1.0 6.0 0.00 0.01 0.00 88 1011.6
20260507082642 70 321 1.0 4.0 0.00 0.01 0.00 88 1011.5
20260507082603 71 34 1.0 3.0 0.00 0.01 0.00 88 1011.5
20260507082542 70 319 1.0 4.0 0.00 0.01 0.00 88 1011.5
20260507082452 70 29 1.0 3.0 0.00 0.01 0.00 88 1011.6
20260507082446 71 34 1.0 3.0 0.00 0.01 0.00 88 1011.5
20260507082242 71 276 1.0 3.0 0.00 0.01 0.00 88 1011.5
20260507082142 71 335 1.0 3.0 0.00 0.01 0.00 88 1011.5
20260507082105 71 272 1.0 3.0 0.00 0.01 0.00 88 1011.6
20260507082043 71 304 1.0 3.0 0.00 0.01 0.00 88 1011.5
20260507081952 71 265 1.0 3.0 0.00 0.01 0.00 88 1011.6
20260507081947 71 272 1.0 3.0 0.00 0.01 0.00 88 1011.6
20260507081742 71 286 1.0 3.0 0.00 0.01 0.00 88 1011.6
20260507081642 71 64 1.0 3.0 0.00 0.01 0.00 88 1011.6
20260507081542 71 87 1.0 4.0 0.00 0.01 0.00 88 1011.6
20260507081442 71 329 1.0 4.0 0.00 0.01 0.00 88 1011.6
20260507081343 71 306 1.0 4.0 0.00 0.01 0.00 88 1011.6
20260507081239 71 332 1.0 4.0 0.00 0.01 0.00 88 1011.6
20260507081139 71 326 1.0 4.0 0.00 0.01 0.00 88 1011.6
20260507081040 71 268 1.0 4.0 0.00 0.01 0.00 88 1011.6
20260507080939 71 346 1.0 4.0 0.00 0.01 0.00 88 1011.6
20260507080839 71 341 1.0 4.0 0.00 0.01 0.00 88 1011.6
20260507080739 71 320 2.0 5.0 0.00 0.01 0.00 88 1011.7
20260507080640 71 347 2.0 5.0 0.00 0.01 0.00 88 1011.7
20260507080556 71 310 2.0 5.0 0.00 0.01 0.00 88 1011.6
20260507080539 71 329 2.0 5.0 0.00 0.01 0.00 88 1011.7
20260507080447 71 282 1.0 5.0 0.00 0.01 0.00 88 1011.7
20260507080442 71 310 2.0 5.0 0.00 0.01 0.00 88 1011.6
20260507075925 71 302 2.0 7.0 0.00 0.01 0.00 88 1011.6
20260507075822 71 309 2.0 7.0 0.00 0.01 0.00 88 1011.6
20260507075719 71 40 2.0 7.0 0.00 0.01 0.00 88 1011.6
20260507075629 71 31 2.0 7.0 0.00 0.01 0.00 88 1011.6
20260507075615 71 342 2.0 7.0 0.00 0.01 0.00 88 1011.6
20260507075513 71 346 2.0 7.0 0.00 0.01 0.00 88 1011.6
20260507075412 71 288 2.0 7.0 0.00 0.01 0.00 88 1011.6
20260507075311 71 13 2.0 7.0 0.00 0.01 0.00 88 1011.7
20260507075211 71 16 2.0 7.0 0.00 0.01 0.00 88 1011.7
20260507075129 71 341 2.0 7.0 0.00 0.01 0.00 88 1011.7
20260507075111 71 299 2.0 7.0 0.00 0.01 0.00 88 1011.7
20260507075011 71 323 2.0 6.0 0.00 0.01 0.00 88 1011.7
20260507074911 71 0 2.0 6.0 0.00 0.01 0.00 88 1011.7
20260507074811 71 320 1.0 4.0 0.00 0.01 0.00 88 1011.7
20260507074711 71 276 1.0 4.0 0.00 0.01 0.00 88 1011.7
20260507074627 71 326 1.0 4.0 0.00 0.01 0.00 88 1011.7
20260507074611 71 243 1.0 3.0 0.00 0.01 0.00 88 1011.7
20260507074511 71 302 1.0 3.0 0.00 0.01 0.00 88 1011.7
20260507074411 71 267 1.0 5.0 0.00 0.01 0.00 88 1011.7
20260507074311 71 299 2.0 5.0 0.00 0.01 0.00 88 1011.7
20260507074211 71 306 2.0 5.0 0.00 0.01 0.00 88 1011.7
20260507074126 71 331 2.0 5.0 0.00 0.01 0.00 88 1011.7
20260507074111 71 348 2.0 5.0 0.00 0.01 0.00 88 1011.8
20260507074011 71 295 2.0 5.0 0.00 0.01 0.00 88 1011.8
20260507073911 71 320 2.0 5.0 0.00 0.01 0.00 88 1011.8
20260507073810 71 354 2.0 5.0 0.00 0.01 0.00 88 1011.8
20260507073710 71 320 2.0 5.0 0.00 0.01 0.00 88 1011.8
20260507073628 71 305 2.0 5.0 0.00 0.01 0.00 88 1011.8
20260507073607 71 314 2.0 5.0 0.00 0.01 0.00 88 1011.8
20260507073501 71 356 2.0 6.0 0.00 0.01 0.00 88 1011.8
20260507073401 71 340 2.0 6.0 0.00 0.01 0.00 88 1011.8
20260507073346 71 259 2.0 6.0 0.00 0.01 0.00 88 1011.9
20260507073301 71 320 2.0 6.0 0.00 0.01 0.00 88 1011.9
20260507073233 71 300 2.0 6.0 0.00 0.01 0.00 88 1011.9
20260507073101 71 0 2.0 6.0 0.00 0.01 0.00 88 1011.9
20260507073002 71 274 2.0 6.0 0.00 0.01 0.00 88 1012.0
20260507072901 71 258 2.0 6.0 0.00 0.01 0.00 88 1012.0
20260507072849 71 314 2.0 6.0 0.00 0.01 0.00 88 1012.0
20260507072801 71 310 2.0 6.0 0.00 0.01 0.00 88 1012.0
20260507072732 71 334 2.0 6.0 0.00 0.01 0.00 88 1012.0
20260507072559 71 313 2.0 6.0 0.00 0.01 0.00 88 1012.0
20260507072458 72 326 2.0 6.0 0.00 0.01 0.00 88 1012.0
20260507072358 72 318 1.0 5.0 0.00 0.01 0.00 88 1012.0
20260507072258 72 51 2.0 5.0 0.00 0.01 0.00 88 1012.0
20260507072158 72 349 2.0 5.0 0.00 0.01 0.00 88 1012.0
20260507072127 72 325 2.0 5.0 0.00 0.01 0.00 88 1012.0
20260507072059 72 285 2.0 5.0 0.00 0.01 0.00 88 1011.9
20260507071959 72 286 2.0 5.0 0.00 0.01 0.00 88 1012.0
20260507071859 72 283 2.0 7.0 0.00 0.01 0.00 88 1011.9
20260507071759 72 1 2.0 7.0 0.00 0.01 0.00 88 1011.9
20260507071659 72 205 2.0 7.0 0.00 0.01 0.00 88 1011.9
20260507071627 72 243 2.0 7.0 0.00 0.01 0.00 88 1011.9
20260507071559 72 341 2.0 7.0 0.00 0.01 0.00 88 1011.9
20260507071458 72 292 2.0 7.0 0.00 0.01 0.00 88 1011.9
20260507071359 72 323 2.0 7.0 0.00 0.01 0.00 88 1011.9
20260507071258 72 300 2.0 7.0 0.00 0.01 0.00 88 1011.9
20260507071155 72 331 2.0 7.0 0.00 0.01 0.00 88 1011.9
20260507071127 72 298 2.0 7.0 0.00 0.01 0.00 88 1011.9
20260507071054 72 249 2.0 7.0 0.00 0.01 0.00 88 1012.0
20260507070953 72 349 2.0 7.0 0.00 0.01 0.00 88 1012.0
20260507070854 72 356 1.0 7.0 0.00 0.01 0.00 89 1012.0
20260507070754 72 309 1.0 4.0 0.00 0.01 0.00 89 1012.0
20260507070654 72 51 1.0 4.0 0.00 0.01 0.00 89 1012.0
20260507070627 72 331 1.0 4.0 0.00 0.01 0.00 89 1012.0
20260507070554 72 299 1.0 4.0 0.00 0.01 0.00 89 1012.0
20260507070453 72 306 1.0 4.0 0.00 0.01 0.00 89 1012.0
20260507070353 72 286 1.0 4.0 0.00 0.01 0.00 89 1012.0
20260507070252 72 307 1.0 4.0 0.00 0.01 0.00 89 1012.0
20260507070150 72 10 1.0 4.0 0.00 0.01 0.00 89 1012.0
20260507070127 72 308 1.0 4.0 0.00 0.01 0.00 89 1012.0
20260507070050 72 322 1.0 4.0 0.00 0.01 0.00 89 1012.0
20260507065950 72 237 1.0 4.0 0.00 0.01 0.00 89 1012.1
20260507065850 72 294 1.0 4.0 0.00 0.01 0.00 89 1012.0
20260507065750 72 290 1.0 4.0 0.00 0.01 0.00 89 1012.1
20260507065650 72 304 1.0 4.0 0.00 0.01 0.00 89 1012.1
20260507065627 72 306 1.0 4.0 0.00 0.01 0.00 89 1012.1
20260507065550 72 291 1.0 4.0 0.00 0.01 0.00 89 1012.0
20260507065450 72 285 1.0 4.0 0.00 0.01 0.00 89 1012.0
20260507065350 72 28 1.0 4.0 0.00 0.01 0.00 89 1012.0
20260507065247 72 270 1.0 6.0 0.00 0.01 0.00 89 1012.0
20260507065143 72 293 1.0 6.0 0.00 0.01 0.00 89 1012.0
20260507065122 72 23 1.0 6.0 0.00 0.01 0.00 89 1012.0
20260507065038 72 248 1.0 6.0 0.00 0.01 0.00 89 1012.0
20260507064935 72 268 1.0 6.0 0.00 0.01 0.00 89 1012.0
20260507064832 72 329 2.0 6.0 0.00 0.01 0.00 89 1011.9
20260507064725 72 354 2.0 6.0 0.00 0.01 0.00 89 1011.9
20260507064620 72 296 2.0 6.0 0.00 0.01 0.00 89 1011.9
20260507064517 72 293 2.0 6.0 0.00 0.01 0.00 89 1011.9
20260507064416 72 257 2.0 6.0 0.00 0.01 0.00 89 1011.9
20260507064317 72 295 2.0 6.0 0.00 0.01 0.00 89 1011.9
20260507064217 72 16 2.0 6.0 0.00 0.01 0.00 88 1011.9
20260507064115 73 337 2.0 5.0 0.00 0.01 0.00 89 1011.8
20260507064000 73 354 2.0 5.0 0.00 0.01 0.00 89 1011.8
20260507063826 73 45 2.0 5.0 0.00 0.01 0.00 89 1011.8
20260507063712 73 325 2.0 4.0 0.00 0.01 0.00 90 1011.9
20260507063600 73 351 2.0 4.0 0.00 0.01 0.00 90 1011.9
20260507063556 73 353 2.0 4.0 0.00 0.01 0.00 90 1011.9
20260507063456 73 301 2.0 4.0 0.00 0.01 0.00 90 1011.9
20260507063355 73 325 2.0 4.0 0.00 0.01 0.00 90 1011.9
20260507063316 73 8 1.0 4.0 0.00 0.01 0.00 90 1011.9
20260507063245 73 2 1.0 4.0 0.00 0.01 0.00 90 1011.9
20260507063203 73 356 1.0 4.0 0.00 0.01 0.00 90 1011.9
20260507063038 73 309 1.0 4.0 0.00 0.01 0.00 90 1011.9
20260507062938 73 294 1.0 4.0 0.00 0.01 0.00 90 1011.9
20260507062838 73 331 1.0 4.0 0.00 0.01 0.00 90 1011.9
20260507062735 73 318 1.0 4.0 0.00 0.01 0.00 90 1011.9
20260507062635 73 274 1.0 4.0 0.00 0.01 0.00 90 1011.9
20260507062557 73 4 1.0 4.0 0.00 0.01 0.00 90 1011.9
20260507062535 73 306 1.0 4.0 0.00 0.01 0.00 90 1011.9
20260507062435 73 282 1.0 4.0 0.00 0.01 0.00 90 1011.9
20260507062332 73 14 1.0 4.0 0.00 0.01 0.00 90 1011.9
20260507062229 73 287 1.0 2.0 0.00 0.01 0.00 90 1011.9
20260507062129 73 358 1.0 2.0 0.00 0.01 0.00 90 1011.9